Wetterdaten: Donnerstag, 30.07.2009
Datum Zeit Temp. Innen Temp. Aussen UV X Diff Temp. Feuchte Inne Feuchte Auss Sonnenschein Luftdruck Regen ab 0,1 Wind Sonnenschein Windben
30.07.2009 00:00 24,2 C 21,9 C 0,0 UV-I 0,0 C 54 % 63 % 0 % 1011,5 hPa 0,0 l/m 0,0 km/h (0 Bft) 0 min 0,0 km/h (0 Bft)
30.07.2009 00:02 24,2 C 21,9 C 0,0 UV-I 0,0 C 54 % 64 % 0 % 1011,5 hPa 0,0 l/m 0,0 km/h (0 Bft) 0 min 0,0 km/h (0 Bft)
30.07.2009 00:04 24,2 C 21,9 C 0,0 UV-I 0,0 C 55 % 64 % 0 % 1011,5 hPa 0,0 l/m 0,0 km/h (0 Bft) 0 min 0,0 km/h (0 Bft)
30.07.2009 00:06 24,2 C 21,9 C 0,0 UV-I 0,0 C 55 % 64 % 0 % 1011,5 hPa 0,0 l/m 0,0 km/h (0 Bft) 0 min 0,0 km/h (0 Bft)
30.07.2009 00:08 24,2 C 21,7 C 0,0 UV-I 0,0 C 55 % 65 % 0 % 1011,5 hPa 0,0 l/m 0,0 km/h (0 Bft) 0 min 0,0 km/h (0 Bft)
30.07.2009 00:10 24,2 C 21,7 C 0,0 UV-I 0,0 C 55 % 65 % 0 % 1011,5 hPa 0,0 l/m 0,0 km/h (0 Bft) 0 min 0,0 km/h (0 Bft)
30.07.2009 00:14 24,2 C 21,6 C 0,0 UV-I 0,0 C 55 % 67 % 0 % 1011,5 hPa 0,0 l/m 0,2 km/h (0 Bft) 0 min 4,3 km/h (1 Bft)
30.07.2009 00:16 24,2 C 21,7 C 0,0 UV-I 0,0 C 55 % 68 % 0 % 1011,9 hPa 0,0 l/m 0,5 km/h (0 Bft) 0 min 0,0 km/h (0 Bft)
30.07.2009 00:18 24,3 C 21,6 C 0,0 UV-I 0,0 C 55 % 69 % 0 % 1011,9 hPa 0,0 l/m 0,5 km/h (0 Bft) 0 min 0,0 km/h (0 Bft)
30.07.2009 00:20 24,3 C 21,5 C 0,0 UV-I 0,0 C 55 % 68 % 0 % 1011,9 hPa 0,0 l/m 1,0 km/h (0 Bft) 0 min 4,1 km/h (1 Bft)
30.07.2009 00:22 24,3 C 21,5 C 0,0 UV-I 0,0 C 56 % 68 % 0 % 1011,9 hPa 0,0 l/m 1,4 km/h (1 Bft) 0 min 6,0 km/h (2 Bft)
30.07.2009 00:24 24,3 C 21,5 C 0,0 UV-I 0,0 C 56 % 68 % 0 % 1011,9 hPa 0,0 l/m 1,7 km/h (1 Bft) 0 min 6,0 km/h (2 Bft)
30.07.2009 00:26 24,3 C 21,5 C 0,0 UV-I 0,0 C 56 % 68 % 0 % 1011,9 hPa 0,0 l/m 1,7 km/h (1 Bft) 0 min 3,6 km/h (1 Bft)
30.07.2009 00:28 24,3 C 21,5 C 0,0 UV-I 0,0 C 56 % 68 % 0 % 1011,9 hPa 0,0 l/m 2,4 km/h (1 Bft) 0 min 9,4 km/h (2 Bft)
30.07.2009 00:30 24,2 C 21,4 C 0,0 UV-I 0,0 C 56 % 68 % 0 % 1011,9 hPa 0,0 l/m 2,6 km/h (1 Bft) 0 min 9,4 km/h (2 Bft)
30.07.2009 00:32 24,2 C 21,4 C 0,0 UV-I 0,0 C 56 % 68 % 0 % 1011,9 hPa 0,0 l/m 2,9 km/h (1 Bft) 0 min 11,3 km/h (2 Bft)
30.07.2009 00:36 24,2 C 21,3 C 0,0 UV-I 0,0 C 56 % 68 % 0 % 1012,1 hPa 0,0 l/m 5,3 km/h (1 Bft) 0 min 12,3 km/h (3 Bft)
30.07.2009 00:38 24,2 C 21,3 C 0,0 UV-I 0,0 C 56 % 68 % 0 % 1012,1 hPa 0,0 l/m 5,8 km/h (2 Bft) 0 min 12,3 km/h (3 Bft)
30.07.2009 00:40 24,2 C 21,2 C 0,0 UV-I 0,0 C 56 % 69 % 0 % 1012,1 hPa 0,0 l/m 6,3 km/h (2 Bft) 0 min 18,0 km/h (3 Bft)
30.07.2009 00:42 24,2 C 21,3 C 0,0 UV-I 0,0 C 56 % 69 % 0 % 1012,1 hPa 0,0 l/m 6,3 km/h (2 Bft) 0 min 22,4 km/h (4 Bft)
30.07.2009 00:44 24,2 C 21,1 C 0,0 UV-I 0,0 C 56 % 69 % 0 % 1012,1 hPa 0,0 l/m 4,6 km/h (1 Bft) 0 min 2,9 km/h (1 Bft)
30.07.2009 00:46 24,2 C 21,1 C 0,0 UV-I 0,0 C 56 % 69 % 0 % 1012,1 hPa 0,0 l/m 4,3 km/h (1 Bft) 0 min 2,9 km/h (1 Bft)
30.07.2009 00:48 24,2 C 21,0 C 0,0 UV-I 0,0 C 56 % 70 % 0 % 1012,1 hPa 0,0 l/m 2,9 km/h (1 Bft) 0 min 3,6 km/h (1 Bft)
30.07.2009 00:50 24,2 C 21,1 C 0,0 UV-I 0,0 C 56 % 70 % 0 % 1012,1 hPa 0,0 l/m 1,7 km/h (1 Bft) 0 min 3,6 km/h (1 Bft)
30.07.2009 00:52 24,2 C 20,9 C 0,0 UV-I 0,0 C 56 % 71 % 0 % 1012,1 hPa 0,0 l/m 0,7 km/h (0 Bft) 0 min 6,0 km/h (2 Bft)
30.07.2009 00:54 24,2 C 20,9 C 0,0 UV-I 0,0 C 56 % 71 % 0 % 1012,1 hPa 0,0 l/m 1,4 km/h (1 Bft) 0 min 6,0 km/h (2 Bft)
30.07.2009 00:56 24,2 C 20,8 C 0,0 UV-I 0,0 C 57 % 72 % 0 % 1012,1 hPa 0,0 l/m 1,4 km/h (1 Bft) 0 min 4,6 km/h (1 Bft)
30.07.2009 00:58 24,2 C 20,9 C 0,0 UV-I 0,0 C 57 % 72 % 0 % 1012,1 hPa 0,0 l/m 1,4 km/h (1 Bft) 0 min 3,8 km/h (1 Bft)
30.07.2009 01:00 24,1 C 20,8 C 0,0 UV-I 0,0 C 57 % 73 % 0 % 1012,1 hPa 0,0 l/m 1,7 km/h (1 Bft) 0 min 3,8 km/h (1 Bft)
30.07.2009 01:02 24,1 C 20,7 C 0,0 UV-I 0,0 C 57 % 74 % 0 % 1012,1 hPa 0,1 l/m 1,9 km/h (1 Bft) 0 min 2,6 km/h (1 Bft)
30.07.2009 01:06 24,1 C 20,6 C 0,0 UV-I 0,0 C 57 % 75 % 0 % 1012,1 hPa 0,2 l/m 1,7 km/h (1 Bft) 0 min 4,8 km/h (1 Bft)
30.07.2009 01:08 24,1 C 20,5 C 0,0 UV-I 0,0 C 58 % 75 % 0 % 1012,1 hPa 0,3 l/m 1,7 km/h (1 Bft) 0 min 0,0 km/h (0 Bft)
30.07.2009 01:12 24,1 C 20,3 C 0,0 UV-I 0,0 C 58 % 76 % 0 % 1012,1 hPa 0,3 l/m 1,4 km/h (1 Bft) 0 min 0,0 km/h (0 Bft)
30.07.2009 01:14 24,1 C 20,2 C 0,0 UV-I 0,0 C 58 % 77 % 0 % 1012,1 hPa 0,2 l/m 1,4 km/h (1 Bft) 0 min 0,0 km/h (0 Bft)
30.07.2009 01:16 24,0 C 20,2 C 0,0 UV-I 0,0 C 59 % 77 % 0 % 1012,1 hPa 0,1 l/m 1,0 km/h (0 Bft) 0 min 0,0 km/h (0 Bft)
30.07.2009 01:18 24,0 C 20,2 C 0,0 UV-I 0,0 C 59 % 77 % 0 % 1012,1 hPa 0,0 l/m 1,0 km/h (0 Bft) 0 min 4,8 km/h (1 Bft)
30.07.2009 01:20 24,0 C 20,1 C 0,0 UV-I 0,0 C 59 % 77 % 0 % 1012,1 hPa 0,2 l/m 1,4 km/h (1 Bft) 0 min 4,8 km/h (1 Bft)
30.07.2009 01:22 24,0 C 20,1 C 0,0 UV-I 0,0 C 59 % 78 % 0 % 1012,1 hPa 0,1 l/m 1,4 km/h (1 Bft) 0 min 4,3 km/h (1 Bft)
30.07.2009 01:24 24,0 C 20,0 C 0,0 UV-I 0,0 C 59 % 78 % 0 % 1012,1 hPa 0,0 l/m 1,4 km/h (1 Bft) 0 min 2,6 km/h (1 Bft)
30.07.2009 01:26 24,0 C 19,9 C 0,0 UV-I 0,0 C 59 % 79 % 0 % 1012,1 hPa 0,1 l/m 1,9 km/h (1 Bft) 0 min 3,1 km/h (1 Bft)
30.07.2009 01:28 24,0 C 19,9 C 0,0 UV-I 0,0 C 60 % 79 % 0 % 1012,1 hPa 0,1 l/m 2,2 km/h (1 Bft) 0 min 3,1 km/h (1 Bft)
30.07.2009 01:30 24,0 C 19,9 C 0,0 UV-I 0,0 C 60 % 79 % 0 % 1012,1 hPa 0,0 l/m 1,9 km/h (1 Bft) 0 min 2,9 km/h (1 Bft)
30.07.2009 01:32 24,0 C 19,8 C 0,0 UV-I 0,0 C 60 % 80 % 0 % 1012,1 hPa 0,0 l/m 1,7 km/h (1 Bft) 0 min 2,6 km/h (1 Bft)
30.07.2009 01:34 24,0 C 19,7 C 0,0 UV-I 0,0 C 60 % 80 % 0 % 1012,1 hPa 0,0 l/m 1,9 km/h (1 Bft) 0 min 2,6 km/h (1 Bft)
30.07.2009 01:36 24,0 C 19,7 C 0,0 UV-I 0,0 C 60 % 80 % 0 % 1011,1 hPa 0,0 l/m 1,7 km/h (1 Bft) 0 min 2,4 km/h (1 Bft)
30.07.2009 01:38 23,9 C 19,7 C 0,0 UV-I 0,0 C 60 % 80 % 0 % 1011,1 hPa 0,0 l/m 1,4 km/h (1 Bft) 0 min 2,4 km/h (1 Bft)
30.07.2009 01:42 23,9 C 19,6 C 0,0 UV-I 0,0 C 61 % 81 % 0 % 1011,1 hPa 0,0 l/m 0,7 km/h (0 Bft) 0 min 2,4 km/h (1 Bft)
30.07.2009 01:44 23,9 C 19,5 C 0,0 UV-I 0,0 C 61 % 81 % 0 % 1011,1 hPa 0,0 l/m 0,5 km/h (0 Bft) 0 min 0,0 km/h (0 Bft)
30.07.2009 01:46 23,9 C 19,5 C 0,0 UV-I 0,0 C 61 % 81 % 0 % 1011,1 hPa 0,0 l/m 0,2 km/h (0 Bft) 0 min 0,0 km/h (0 Bft)
30.07.2009 01:48 23,9 C 19,5 C 0,0 UV-I 0,0 C 61 % 81 % 0 % 1011,1 hPa 0,0 l/m 0,2 km/h (0 Bft) 0 min 0,0 km/h (0 Bft)
30.07.2009 01:50 23,9 C 19,4 C 0,0 UV-I 0,0 C 61 % 82 % 0 % 1011,1 hPa 0,0 l/m 0,2 km/h (0 Bft) 0 min 4,3 km/h (1 Bft)
30.07.2009 01:52 23,9 C 19,5 C 0,0 UV-I 0,0 C 61 % 82 % 0 % 1011,1 hPa 0,0 l/m 0,2 km/h (0 Bft) 0 min 4,3 km/h (1 Bft)
30.07.2009 01:54 23,9 C 19,4 C 0,0 UV-I 0,0 C 62 % 82 % 0 % 1011,1 hPa 0,0 l/m 0,2 km/h (0 Bft) 0 min 0,0 km/h (0 Bft)
30.07.2009 01:56 23,8 C 19,3 C 0,0 UV-I 0,0 C 62 % 82 % 0 % 1011,9 hPa 0,0 l/m 0,2 km/h (0 Bft) 0 min 4,8 km/h (1 Bft)
30.07.2009 01:58 23,8 C 19,3 C 0,0 UV-I 0,0 C 62 % 83 % 0 % 1011,9 hPa 0,0 l/m 0,2 km/h (0 Bft) 0 min 0,0 km/h (0 Bft)
30.07.2009 02:00 23,8 C 19,2 C 0,0 UV-I 0,0 C 62 % 83 % 0 % 1011,9 hPa 0,0 l/m 0,5 km/h (0 Bft) 0 min 3,1 km/h (1 Bft)
30.07.2009 02:02 23,8 C 19,2 C 0,0 UV-I 0,0 C 62 % 83 % 0 % 1011,9 hPa 0,0 l/m 0,7 km/h (0 Bft) 0 min 2,4 km/h (1 Bft)
30.07.2009 02:04 23,8 C 19,2 C 0,0 UV-I 0,0 C 62 % 83 % 0 % 1011,9 hPa 0,0 l/m 1,0 km/h (0 Bft) 0 min 6,0 km/h (2 Bft)
30.07.2009 02:06 23,8 C 19,3 C 0,0 UV-I 0,0 C 62 % 83 % 0 % 1011,9 hPa 0,0 l/m 1,4 km/h (1 Bft) 0 min 6,0 km/h (2 Bft)
30.07.2009 02:08 23,8 C 19,3 C 0,0 UV-I 0,0 C 62 % 84 % 0 % 1011,9 hPa 0,0 l/m 1,9 km/h (1 Bft) 0 min 7,2 km/h (2 Bft)
30.07.2009 02:10 23,8 C 19,2 C 0,0 UV-I 0,0 C 62 % 84 % 0 % 1011,9 hPa 0,0 l/m 3,1 km/h (1 Bft) 0 min 9,9 km/h (2 Bft)
30.07.2009 02:12 23,8 C 19,2 C 0,0 UV-I 0,0 C 62 % 84 % 0 % 1011,9 hPa 0,0 l/m 3,4 km/h (1 Bft) 0 min 9,9 km/h (2 Bft)
30.07.2009 02:14 23,7 C 19,2 C 0,0 UV-I 0,0 C 62 % 84 % 0 % 1011,9 hPa 0,0 l/m 3,8 km/h (1 Bft) 0 min 7,5 km/h (2 Bft)
30.07.2009 02:16 23,7 C 19,2 C 0,0 UV-I 0,0 C 62 % 85 % 0 % 1012,3 hPa 0,0 l/m 4,3 km/h (1 Bft) 0 min 9,6 km/h (2 Bft)
30.07.2009 02:18 23,7 C 19,2 C 0,0 UV-I 0,0 C 62 % 85 % 0 % 1012,3 hPa 0,0 l/m 5,1 km/h (1 Bft) 0 min 11,1 km/h (2 Bft)
30.07.2009 02:20 23,7 C 19,2 C 0,0 UV-I 0,0 C 62 % 85 % 0 % 1012,3 hPa 0,0 l/m 4,8 km/h (1 Bft) 0 min 11,1 km/h (2 Bft)
30.07.2009 02:22 23,7 C 19,2 C 0,0 UV-I 0,0 C 62 % 84 % 0 % 1012,3 hPa 0,0 l/m 4,3 km/h (1 Bft) 0 min 7,0 km/h (2 Bft)
30.07.2009 02:24 23,6 C 19,2 C 0,0 UV-I 0,0 C 62 % 84 % 0 % 1012,3 hPa 0,0 l/m 4,1 km/h (1 Bft) 0 min 7,2 km/h (2 Bft)
30.07.2009 02:26 23,6 C 19,2 C 0,0 UV-I 0,0 C 62 % 85 % 0 % 1012,3 hPa 0,0 l/m 4,3 km/h (1 Bft) 0 min 7,2 km/h (2 Bft)
30.07.2009 02:28 23,6 C 19,1 C 0,0 UV-I 0,0 C 62 % 85 % 0 % 1012,3 hPa 0,0 l/m 3,6 km/h (1 Bft) 0 min 7,0 km/h (2 Bft)
30.07.2009 02:30 23,6 C 19,1 C 0,0 UV-I 0,0 C 62 % 85 % 0 % 1012,3 hPa 0,0 l/m 2,9 km/h (1 Bft) 0 min 6,3 km/h (2 Bft)
30.07.2009 02:32 23,6 C 19,1 C 0,0 UV-I 0,0 C 62 % 85 % 0 % 1012,3 hPa 0,0 l/m 2,2 km/h (1 Bft) 0 min 4,6 km/h (1 Bft)
30.07.2009 02:34 23,6 C 19,1 C 0,0 UV-I 0,0 C 63 % 85 % 0 % 1012,3 hPa 0,0 l/m 2,4 km/h (1 Bft) 0 min 0,0 km/h (0 Bft)
30.07.2009 02:36 23,6 C 19,1 C 0,0 UV-I 0,0 C 63 % 85 % 0 % 1012,3 hPa 0,0 l/m 1,9 km/h (1 Bft) 0 min 4,6 km/h (1 Bft)
30.07.2009 02:38 23,6 C 19,1 C 0,0 UV-I 0,0 C 63 % 85 % 0 % 1012,3 hPa 0,0 l/m 1,9 km/h (1 Bft) 0 min 4,6 km/h (1 Bft)
30.07.2009 02:40 23,6 C 19,0 C 0,0 UV-I 0,0 C 63 % 85 % 0 % 1012,3 hPa 0,0 l/m 1,4 km/h (1 Bft) 0 min 0,0 km/h (0 Bft)
30.07.2009 02:42 23,6 C 19,1 C 0,0 UV-I 0,0 C 63 % 85 % 0 % 1012,3 hPa 0,0 l/m 1,4 km/h (1 Bft) 0 min 0,0 km/h (0 Bft)
30.07.2009 02:44 23,6 C 19,1 C 0,0 UV-I 0,0 C 63 % 85 % 0 % 1012,3 hPa 0,0 l/m 1,4 km/h (1 Bft) 0 min 4,6 km/h (1 Bft)
30.07.2009 02:46 23,6 C 19,1 C 0,0 UV-I 0,0 C 63 % 85 % 0 % 1012,3 hPa 0,0 l/m 1,4 km/h (1 Bft) 0 min 4,6 km/h (1 Bft)
30.07.2009 02:48 23,6 C 19,0 C 0,0 UV-I 0,0 C 63 % 85 % 0 % 1012,3 hPa 0,0 l/m 1,0 km/h (0 Bft) 0 min 0,0 km/h (0 Bft)
30.07.2009 02:50 23,5 C 18,9 C 0,0 UV-I 0,0 C 63 % 85 % 0 % 1012,3 hPa 0,0 l/m 1,2 km/h (1 Bft) 0 min 2,9 km/h (1 Bft)
30.07.2009 02:52 23,5 C 18,9 C 0,0 UV-I 0,0 C 63 % 85 % 0 % 1012,3 hPa 0,0 l/m 1,2 km/h (1 Bft) 0 min 2,9 km/h (1 Bft)
30.07.2009 02:54 23,5 C 18,9 C 0,0 UV-I 0,0 C 63 % 85 % 0 % 1012,3 hPa 0,0 l/m 1,4 km/h (1 Bft) 0 min 0,0 km/h (0 Bft)
30.07.2009 02:56 23,5 C 18,8 C 0,0 UV-I 0,0 C 63 % 85 % 0 % 1012,4 hPa 0,0 l/m 1,0 km/h (0 Bft) 0 min 0,0 km/h (0 Bft)
30.07.2009 02:58 23,5 C 18,8 C 0,0 UV-I 0,0 C 63 % 85 % 0 % 1012,4 hPa 0,0 l/m 1,0 km/h (0 Bft) 0 min 5,1 km/h (1 Bft)
30.07.2009 03:00 23,5 C 18,9 C 0,0 UV-I 0,0 C 63 % 85 % 0 % 1012,4 hPa 0,0 l/m 1,2 km/h (1 Bft) 0 min 5,8 km/h (2 Bft)
30.07.2009 03:02 23,5 C 18,8 C 0,0 UV-I 0,0 C 63 % 85 % 0 % 1012,4 hPa 0,0 l/m 1,4 km/h (1 Bft) 0 min 5,8 km/h (2 Bft)
30.07.2009 03:04 23,5 C 18,7 C 0,0 UV-I 0,0 C 63 % 86 % 0 % 1012,4 hPa 0,0 l/m 1,4 km/h (1 Bft) 0 min 2,9 km/h (1 Bft)
30.07.2009 03:06 23,4 C 18,7 C 0,0 UV-I 0,0 C 63 % 86 % 0 % 1012,4 hPa 0,0 l/m 2,4 km/h (1 Bft) 0 min 5,1 km/h (1 Bft)
30.07.2009 03:08 23,4 C 18,7 C 0,0 UV-I 0,0 C 63 % 86 % 0 % 1012,4 hPa 0,0 l/m 2,4 km/h (1 Bft) 0 min 0,0 km/h (0 Bft)
30.07.2009 03:10 23,4 C 18,6 C 0,0 UV-I 0,0 C 63 % 86 % 0 % 1012,4 hPa 0,0 l/m 2,4 km/h (1 Bft) 0 min 0,0 km/h (0 Bft)
30.07.2009 03:14 23,4 C 18,7 C 0,0 UV-I 0,0 C 63 % 86 % 0 % 1012,4 hPa 0,0 l/m 1,4 km/h (1 Bft) 0 min 0,0 km/h (0 Bft)
30.07.2009 03:16 23,4 C 18,7 C 0,0 UV-I 0,0 C 63 % 86 % 0 % 1012,1 hPa 0,0 l/m 1,2 km/h (1 Bft) 0 min 0,0 km/h (0 Bft)
30.07.2009 03:18 23,4 C 18,6 C 0,0 UV-I 0,0 C 63 % 86 % 0 % 1012,1 hPa 0,0 l/m 0,7 km/h (0 Bft) 0 min 0,0 km/h (0 Bft)
30.07.2009 03:20 23,4 C 18,5 C 0,0 UV-I 0,0 C 63 % 86 % 0 % 1012,1 hPa 0,0 l/m 0,5 km/h (0 Bft) 0 min 0,0 km/h (0 Bft)
30.07.2009 03:22 23,4 C 18,5 C 0,0 UV-I 0,0 C 63 % 86 % 0 % 1012,1 hPa 0,0 l/m 0,5 km/h (0 Bft) 0 min 0,0 km/h (0 Bft)
30.07.2009 03:24 23,4 C 18,5 C 0,0 UV-I 0,0 C 63 % 86 % 0 % 1012,1 hPa 0,0 l/m 0,5 km/h (0 Bft) 0 min 0,0 km/h (0 Bft)
30.07.2009 03:28 23,4 C 18,4 C 0,0 UV-I 0,0 C 63 % 86 % 0 % 1012,1 hPa 0,0 l/m 0,5 km/h (0 Bft) 0 min 4,1 km/h (1 Bft)
30.07.2009 03:32 23,2 C 18,4 C 0,0 UV-I 0,0 C 63 % 86 % 0 % 1012,1 hPa 0,0 l/m 1,0 km/h (0 Bft) 0 min 4,8 km/h (1 Bft)
30.07.2009 03:34 23,2 C 18,4 C 0,0 UV-I 0,0 C 64 % 86 % 0 % 1012,1 hPa 0,0 l/m 1,4 km/h (1 Bft) 0 min 5,8 km/h (2 Bft)
30.07.2009 03:36 23,2 C 18,3 C 0,0 UV-I 0,0 C 64 % 86 % 0 % 1012,4 hPa 0,0 l/m 1,4 km/h (1 Bft) 0 min 5,8 km/h (2 Bft)
30.07.2009 03:38 23,2 C 18,3 C 0,0 UV-I 0,0 C 64 % 86 % 0 % 1012,4 hPa 0,0 l/m 1,7 km/h (1 Bft) 0 min 2,6 km/h (1 Bft)
30.07.2009 03:40 23,2 C 18,3 C 0,0 UV-I 0,0 C 64 % 86 % 0 % 1012,4 hPa 0,0 l/m 1,4 km/h (1 Bft) 0 min 4,1 km/h (1 Bft)
30.07.2009 03:42 23,3 C 18,2 C 0,0 UV-I 0,0 C 64 % 86 % 0 % 1012,4 hPa 0,0 l/m 1,2 km/h (1 Bft) 0 min 0,0 km/h (0 Bft)
30.07.2009 03:44 23,3 C 18,3 C 0,0 UV-I 0,0 C 64 % 86 % 0 % 1012,4 hPa 0,0 l/m 1,0 km/h (0 Bft) 0 min 0,0 km/h (0 Bft)
30.07.2009 03:46 23,3 C 18,2 C 0,0 UV-I 0,0 C 64 % 86 % 0 % 1012,4 hPa 0,0 l/m 0,7 km/h (0 Bft) 0 min 4,3 km/h (1 Bft)
30.07.2009 03:48 23,3 C 18,1 C 0,0 UV-I 0,0 C 64 % 86 % 0 % 1012,4 hPa 0,0 l/m 0,5 km/h (0 Bft) 0 min 4,3 km/h (1 Bft)
30.07.2009 03:50 23,2 C 18,1 C 0,0 UV-I 0,0 C 64 % 86 % 0 % 1012,4 hPa 0,0 l/m 0,7 km/h (0 Bft) 0 min 3,4 km/h (1 Bft)
30.07.2009 03:52 23,2 C 18,1 C 0,0 UV-I 0,0 C 64 % 86 % 0 % 1012,4 hPa 0,0 l/m 1,0 km/h (0 Bft) 0 min 4,3 km/h (1 Bft)
30.07.2009 03:54 23,2 C 18,0 C 0,0 UV-I 0,0 C 64 % 86 % 0 % 1012,4 hPa 0,0 l/m 1,2 km/h (1 Bft) 0 min 4,3 km/h (1 Bft)
30.07.2009 04:00 23,2 C 17,9 C 0,0 UV-I 0,0 C 64 % 86 % 0 % 1012,8 hPa 0,0 l/m 1,4 km/h (1 Bft) 0 min 4,1 km/h (1 Bft)
30.07.2009 04:04 23,2 C 17,8 C 0,0 UV-I 0,0 C 63 % 86 % 0 % 1012,8 hPa 0,0 l/m 1,2 km/h (1 Bft) 0 min 0,0 km/h (0 Bft)
30.07.2009 04:06 23,1 C 17,9 C 0,0 UV-I 0,0 C 63 % 86 % 0 % 1012,8 hPa 0,0 l/m 1,4 km/h (1 Bft) 0 min 4,8 km/h (1 Bft)
30.07.2009 04:08 23,1 C 17,8 C 0,0 UV-I 0,0 C 63 % 86 % 0 % 1012,8 hPa 0,0 l/m 1,4 km/h (1 Bft) 0 min 4,8 km/h (1 Bft)
30.07.2009 04:10 23,1 C 17,8 C 0,0 UV-I 0,0 C 63 % 85 % 0 % 1012,8 hPa 0,0 l/m 1,4 km/h (1 Bft) 0 min 0,0 km/h (0 Bft)
30.07.2009 04:12 23,1 C 17,7 C 0,0 UV-I 0,0 C 63 % 85 % 0 % 1012,8 hPa 0,0 l/m 1,4 km/h (1 Bft) 0 min 3,4 km/h (1 Bft)
30.07.2009 04:14 23,1 C 17,7 C 0,0 UV-I 0,0 C 63 % 85 % 0 % 1012,8 hPa 0,0 l/m 1,7 km/h (1 Bft) 0 min 3,4 km/h (1 Bft)
30.07.2009 04:16 23,0 C 17,6 C 0,0 UV-I 0,0 C 63 % 85 % 0 % 1013,2 hPa 0,0 l/m 1,7 km/h (1 Bft) 0 min 0,0 km/h (0 Bft)
30.07.2009 04:20 23,0 C 17,7 C 0,0 UV-I 0,0 C 63 % 85 % 0 % 1013,2 hPa 0,0 l/m 1,7 km/h (1 Bft) 0 min 0,0 km/h (0 Bft)
30.07.2009 04:24 23,0 C 17,6 C 0,0 UV-I 0,0 C 63 % 85 % 0 % 1013,2 hPa 0,0 l/m 1,7 km/h (1 Bft) 0 min 5,1 km/h (1 Bft)
30.07.2009 04:26 23,0 C 17,5 C 0,0 UV-I 0,0 C 62 % 85 % 0 % 1013,2 hPa 0,0 l/m 1,7 km/h (1 Bft) 0 min 0,0 km/h (0 Bft)
30.07.2009 04:28 23,0 C 17,5 C 0,0 UV-I 0,0 C 62 % 85 % 0 % 1013,2 hPa 0,0 l/m 1,4 km/h (1 Bft) 0 min 5,5 km/h (1 Bft)
30.07.2009 04:30 22,9 C 17,5 C 0,0 UV-I 0,0 C 62 % 85 % 0 % 1013,2 hPa 0,0 l/m 1,0 km/h (0 Bft) 0 min 5,5 km/h (1 Bft)
30.07.2009 04:32 22,9 C 17,4 C 0,0 UV-I 0,0 C 62 % 85 % 0 % 1013,2 hPa 0,0 l/m 1,0 km/h (0 Bft) 0 min 0,0 km/h (0 Bft)
30.07.2009 04:34 22,9 C 17,4 C 0,0 UV-I 0,0 C 62 % 85 % 0 % 1013,2 hPa 0,0 l/m 0,5 km/h (0 Bft) 0 min 0,0 km/h (0 Bft)
30.07.2009 04:38 22,9 C 17,5 C 0,0 UV-I 0,0 C 62 % 85 % 0 % 1013,8 hPa 0,0 l/m 0,7 km/h (0 Bft) 0 min 3,8 km/h (1 Bft)
30.07.2009 04:40 22,9 C 17,4 C 0,0 UV-I 0,0 C 62 % 85 % 0 % 1013,8 hPa 0,0 l/m 0,7 km/h (0 Bft) 0 min 3,6 km/h (1 Bft)
30.07.2009 04:42 22,9 C 17,4 C 0,0 UV-I 0,0 C 62 % 85 % 0 % 1013,8 hPa 0,0 l/m 0,7 km/h (0 Bft) 0 min 0,0 km/h (0 Bft)
30.07.2009 04:44 22,9 C 17,3 C 0,0 UV-I 0,0 C 62 % 84 % 0 % 1013,8 hPa 0,0 l/m 1,0 km/h (0 Bft) 0 min 4,3 km/h (1 Bft)
30.07.2009 04:46 22,9 C 17,3 C 0,0 UV-I 0,0 C 62 % 84 % 0 % 1013,8 hPa 0,0 l/m 1,0 km/h (0 Bft) 0 min 4,3 km/h (1 Bft)
30.07.2009 04:48 22,8 C 17,3 C 0,0 UV-I 0,0 C 62 % 84 % 0 % 1013,8 hPa 0,0 l/m 0,5 km/h (0 Bft) 0 min 0,0 km/h (0 Bft)
30.07.2009 04:50 22,8 C 17,3 C 0,0 UV-I 0,0 C 62 % 84 % 0 % 1013,8 hPa 0,0 l/m 0,5 km/h (0 Bft) 0 min 0,0 km/h (0 Bft)
30.07.2009 04:54 22,8 C 17,2 C 0,0 UV-I 0,0 C 62 % 84 % 0 % 1013,8 hPa 0,0 l/m 1,2 km/h (1 Bft) 0 min 8,7 km/h (2 Bft)
30.07.2009 04:56 22,8 C 17,2 C 0,0 UV-I 0,0 C 62 % 84 % 0 % 1013,9 hPa 0,0 l/m 1,7 km/h (1 Bft) 0 min 0,0 km/h (0 Bft)
30.07.2009 04:58 22,8 C 17,3 C 0,0 UV-I 0,0 C 62 % 84 % 0 % 1013,9 hPa 0,0 l/m 2,2 km/h (1 Bft) 0 min 5,5 km/h (1 Bft)
30.07.2009 05:00 22,8 C 17,3 C 0,0 UV-I 0,0 C 62 % 84 % 0 % 1013,9 hPa 0,0 l/m 2,2 km/h (1 Bft) 0 min 5,5 km/h (1 Bft)
30.07.2009 05:02 22,8 C 17,2 C 0,0 UV-I 0,0 C 62 % 84 % 0 % 1013,9 hPa 0,0 l/m 2,4 km/h (1 Bft) 0 min 4,8 km/h (1 Bft)
30.07.2009 05:04 22,8 C 17,2 C 0,0 UV-I 0,0 C 62 % 84 % 0 % 1013,9 hPa 0,0 l/m 2,2 km/h (1 Bft) 0 min 4,8 km/h (1 Bft)
30.07.2009 05:06 22,8 C 17,2 C 0,0 UV-I 0,0 C 61 % 84 % 0 % 1013,9 hPa 0,0 l/m 1,9 km/h (1 Bft) 0 min 0,0 km/h (0 Bft)
30.07.2009 05:08 22,8 C 17,1 C 0,0 UV-I 0,0 C 61 % 83 % 0 % 1013,9 hPa 0,0 l/m 1,4 km/h (1 Bft) 0 min 0,0 km/h (0 Bft)
30.07.2009 05:10 22,8 C 17,1 C 0,0 UV-I 0,0 C 61 % 83 % 0 % 1013,9 hPa 0,0 l/m 1,4 km/h (1 Bft) 0 min 2,6 km/h (1 Bft)
30.07.2009 05:14 22,8 C 17,1 C 0,0 UV-I 0,0 C 61 % 83 % 0 % 1013,9 hPa 0,0 l/m 1,4 km/h (1 Bft) 0 min 2,9 km/h (1 Bft)
30.07.2009 05:16 22,8 C 17,1 C 0,0 UV-I 0,0 C 61 % 83 % 0 % 1013,9 hPa 0,0 l/m 1,2 km/h (1 Bft) 0 min 3,8 km/h (1 Bft)
30.07.2009 05:18 22,8 C 17,1 C 0,0 UV-I 0,0 C 61 % 83 % 0 % 1013,9 hPa 0,0 l/m 1,4 km/h (1 Bft) 0 min 6,0 km/h (2 Bft)
30.07.2009 05:20 22,8 C 17,1 C 0,0 UV-I 0,0 C 61 % 83 % 0 % 1013,9 hPa 0,0 l/m 1,9 km/h (1 Bft) 0 min 6,0 km/h (2 Bft)
30.07.2009 05:22 22,8 C 17,1 C 0,0 UV-I 0,0 C 61 % 83 % 0 % 1013,9 hPa 0,0 l/m 1,4 km/h (1 Bft) 0 min 0,0 km/h (0 Bft)
30.07.2009 05:24 22,7 C 17,1 C 0,0 UV-I 0,0 C 61 % 83 % 0 % 1013,9 hPa 0,0 l/m 1,4 km/h (1 Bft) 0 min 0,0 km/h (0 Bft)
30.07.2009 05:26 22,8 C 17,0 C 0,0 UV-I 0,0 C 61 % 82 % 0 % 1013,9 hPa 0,0 l/m 1,2 km/h (1 Bft) 0 min 4,1 km/h (1 Bft)
30.07.2009 05:28 22,8 C 17,0 C 0,0 UV-I 0,0 C 61 % 82 % 0 % 1013,9 hPa 0,0 l/m 1,4 km/h (1 Bft) 0 min 4,1 km/h (1 Bft)
30.07.2009 05:30 22,7 C 17,0 C 0,0 UV-I 0,0 C 60 % 82 % 0 % 1013,9 hPa 0,0 l/m 0,5 km/h (0 Bft) 0 min 0,0 km/h (0 Bft)
30.07.2009 05:32 22,7 C 17,0 C 0,0 UV-I 0,0 C 61 % 82 % 0 % 1013,9 hPa 0,0 l/m 0,5 km/h (0 Bft) 0 min 0,0 km/h (0 Bft)
30.07.2009 05:34 22,7 C 17,0 C 0,0 UV-I 0,0 C 60 % 82 % 0 % 1013,9 hPa 0,0 l/m 0,5 km/h (0 Bft) 0 min 0,0 km/h (0 Bft)
30.07.2009 05:36 22,7 C 17,1 C 0,0 UV-I 0,0 C 60 % 83 % 0 % 1014,0 hPa 0,0 l/m 0,7 km/h (0 Bft) 0 min 0,0 km/h (0 Bft)
30.07.2009 05:38 22,7 C 17,1 C 0,0 UV-I 0,0 C 60 % 82 % 0 % 1014,0 hPa 0,0 l/m 0,2 km/h (0 Bft) 0 min 0,0 km/h (0 Bft)
30.07.2009 05:40 22,7 C 17,1 C 0,0 UV-I 0,0 C 60 % 83 % 0 % 1014,0 hPa 0,0 l/m 0,5 km/h (0 Bft) 0 min 4,1 km/h (1 Bft)
30.07.2009 05:42 22,7 C 17,1 C 0,0 UV-I 0,0 C 60 % 83 % 0 % 1014,0 hPa 0,0 l/m 0,5 km/h (0 Bft) 0 min 4,1 km/h (1 Bft)
30.07.2009 05:44 22,7 C 17,1 C 0,0 UV-I 0,0 C 60 % 82 % 0 % 1014,0 hPa 0,0 l/m 0,5 km/h (0 Bft) 0 min 3,8 km/h (1 Bft)
30.07.2009 05:46 22,7 C 17,0 C 0,0 UV-I 0,0 C 60 % 82 % 0 % 1014,0 hPa 0,0 l/m 0,7 km/h (0 Bft) 0 min 3,8 km/h (1 Bft)
30.07.2009 05:48 22,7 C 17,1 C 0,0 UV-I 0,0 C 60 % 82 % 0 % 1014,0 hPa 0,0 l/m 0,7 km/h (0 Bft) 0 min 5,3 km/h (1 Bft)
30.07.2009 05:50 22,7 C 17,0 C 0,0 UV-I 0,0 C 60 % 82 % 0 % 1014,0 hPa 0,0 l/m 1,2 km/h (1 Bft) 0 min 9,1 km/h (2 Bft)
30.07.2009 05:52 22,6 C 17,1 C 0,0 UV-I 0,0 C 60 % 82 % 0 % 1014,0 hPa 0,0 l/m 1,4 km/h (1 Bft) 0 min 9,1 km/h (2 Bft)
30.07.2009 05:54 22,7 C 17,1 C 0,0 UV-I 0,0 C 60 % 82 % 0 % 1014,0 hPa 0,0 l/m 1,7 km/h (1 Bft) 0 min 3,4 km/h (1 Bft)
30.07.2009 05:56 22,6 C 17,1 C 0,0 UV-I 0,0 C 60 % 82 % 0 % 1014,4 hPa 0,0 l/m 1,9 km/h (1 Bft) 0 min 3,1 km/h (1 Bft)
30.07.2009 05:58 22,6 C 17,1 C 0,0 UV-I 0,0 C 60 % 82 % 0 % 1014,4 hPa 0,0 l/m 2,4 km/h (1 Bft) 0 min 3,1 km/h (1 Bft)
30.07.2009 06:00 22,6 C 17,1 C 0,0 UV-I 0,0 C 60 % 82 % 0 % 1014,4 hPa 0,0 l/m 2,6 km/h (1 Bft) 0 min 9,6 km/h (2 Bft)
30.07.2009 06:02 22,6 C 17,1 C 0,0 UV-I 0,0 C 60 % 82 % 0 % 1014,4 hPa 0,0 l/m 2,6 km/h (1 Bft) 0 min 9,6 km/h (2 Bft)
30.07.2009 06:04 22,6 C 17,1 C 0,0 UV-I 0,0 C 60 % 82 % 0 % 1014,4 hPa 0,0 l/m 2,6 km/h (1 Bft) 0 min 4,6 km/h (1 Bft)
30.07.2009 06:06 22,6 C 16,9 C 0,0 UV-I 0,0 C 60 % 82 % 0 % 1014,4 hPa 0,0 l/m 2,4 km/h (1 Bft) 0 min 3,1 km/h (1 Bft)
30.07.2009 06:08 22,6 C 17,1 C 0,0 UV-I 0,0 C 60 % 82 % 0 % 1014,4 hPa 0,0 l/m 2,2 km/h (1 Bft) 0 min 10,6 km/h (2 Bft)
30.07.2009 06:10 22,6 C 17,1 C 0,0 UV-I 0,0 C 60 % 81 % 0 % 1014,4 hPa 0,0 l/m 1,9 km/h (1 Bft) 0 min 10,6 km/h (2 Bft)
30.07.2009 06:12 22,6 C 17,0 C 0,0 UV-I 0,0 C 60 % 81 % 0 % 1014,4 hPa 0,0 l/m 1,2 km/h (1 Bft) 0 min 2,9 km/h (1 Bft)
30.07.2009 06:14 22,6 C 16,9 C 0,0 UV-I 0,0 C 60 % 81 % 0 % 1014,4 hPa 0,0 l/m 1,0 km/h (0 Bft) 0 min 3,4 km/h (1 Bft)
30.07.2009 06:16 22,6 C 16,9 C 0,0 UV-I 0,0 C 59 % 81 % 0 % 1014,4 hPa 0,0 l/m 1,7 km/h (1 Bft) 0 min 13,7 km/h (3 Bft)
30.07.2009 06:18 22,6 C 17,0 C 0,0 UV-I 0,0 C 59 % 81 % 0 % 1014,4 hPa 0,0 l/m 2,4 km/h (1 Bft) 0 min 13,7 km/h (3 Bft)
30.07.2009 06:20 22,5 C 17,0 C 0,0 UV-I 0,0 C 59 % 81 % 0 % 1014,4 hPa 0,0 l/m 3,6 km/h (1 Bft) 0 min 6,7 km/h (2 Bft)
30.07.2009 06:22 22,5 C 17,0 C 0,0 UV-I 0,0 C 59 % 81 % 0 % 1014,4 hPa 0,0 l/m 4,1 km/h (1 Bft) 0 min 6,7 km/h (2 Bft)
30.07.2009 06:24 22,5 C 17,0 C 0,0 UV-I 0,0 C 59 % 81 % 0 % 1014,4 hPa 0,0 l/m 5,1 km/h (1 Bft) 0 min 3,6 km/h (1 Bft)
30.07.2009 06:26 22,5 C 17,1 C 0,0 UV-I 0,0 C 59 % 81 % 0 % 1014,4 hPa 0,0 l/m 5,5 km/h (1 Bft) 0 min 5,8 km/h (2 Bft)
30.07.2009 06:28 22,5 C 17,1 C 0,0 UV-I 0,0 C 59 % 81 % 0 % 1014,4 hPa 0,0 l/m 5,3 km/h (1 Bft) 0 min 10,6 km/h (2 Bft)
30.07.2009 06:30 22,5 C 17,1 C 0,0 UV-I 0,0 C 59 % 80 % 0 % 1014,4 hPa 0,0 l/m 5,5 km/h (1 Bft) 0 min 10,6 km/h (2 Bft)
30.07.2009 06:32 22,5 C 17,1 C 0,0 UV-I 0,0 C 59 % 80 % 0 % 1014,4 hPa 0,0 l/m 4,8 km/h (1 Bft) 0 min 6,3 km/h (2 Bft)
30.07.2009 06:34 22,5 C 17,1 C 0,0 UV-I 0,0 C 59 % 81 % 0 % 1014,4 hPa 0,0 l/m 4,6 km/h (1 Bft) 0 min 6,7 km/h (2 Bft)
30.07.2009 06:36 22,5 C 16,9 C 0,1 UV-I 0,0 C 59 % 81 % 0 % 1014,6 hPa 0,0 l/m 4,3 km/h (1 Bft) 0 min 6,7 km/h (2 Bft)
30.07.2009 06:38 22,4 C 16,9 C 0,1 UV-I 0,0 C 59 % 81 % 0 % 1014,6 hPa 0,0 l/m 4,1 km/h (1 Bft) 0 min 2,4 km/h (1 Bft)
30.07.2009 06:40 22,5 C 16,9 C 0,1 UV-I 0,0 C 59 % 80 % 0 % 1014,6 hPa 0,0 l/m 4,1 km/h (1 Bft) 0 min 5,3 km/h (1 Bft)
30.07.2009 06:42 22,4 C 16,9 C 0,0 UV-I 0,0 C 59 % 80 % 0 % 1014,6 hPa 0,0 l/m 3,6 km/h (1 Bft) 0 min 3,4 km/h (1 Bft)
30.07.2009 06:44 22,4 C 16,9 C 0,0 UV-I 0,0 C 59 % 80 % 0 % 1014,6 hPa 0,0 l/m 3,4 km/h (1 Bft) 0 min 3,4 km/h (1 Bft)
30.07.2009 06:46 22,4 C 16,9 C 0,0 UV-I 0,0 C 59 % 80 % 0 % 1014,6 hPa 0,0 l/m 2,9 km/h (1 Bft) 0 min 4,8 km/h (1 Bft)
30.07.2009 06:48 22,4 C 16,9 C 0,0 UV-I 0,0 C 59 % 80 % 0 % 1014,6 hPa 0,0 l/m 3,1 km/h (1 Bft) 0 min 6,0 km/h (2 Bft)
30.07.2009 06:50 22,4 C 16,9 C 0,0 UV-I 0,0 C 59 % 80 % 0 % 1014,6 hPa 0,0 l/m 3,6 km/h (1 Bft) 0 min 6,0 km/h (2 Bft)
30.07.2009 06:52 22,4 C 16,9 C 0,2 UV-I 0,0 C 59 % 80 % 0 % 1014,6 hPa 0,0 l/m 3,1 km/h (1 Bft) 0 min 5,1 km/h (1 Bft)
30.07.2009 06:54 22,4 C 16,9 C 0,2 UV-I 0,0 C 59 % 80 % 0 % 1014,6 hPa 0,0 l/m 3,4 km/h (1 Bft) 0 min 4,3 km/h (1 Bft)
30.07.2009 06:56 22,4 C 16,9 C 0,2 UV-I 0,0 C 59 % 80 % 0 % 1014,9 hPa 0,0 l/m 3,6 km/h (1 Bft) 0 min 7,2 km/h (2 Bft)
30.07.2009 06:58 22,4 C 16,9 C 0,2 UV-I 0,0 C 59 % 80 % 0 % 1014,9 hPa 0,0 l/m 3,8 km/h (1 Bft) 0 min 10,3 km/h (2 Bft)
30.07.2009 07:00 22,4 C 16,9 C 0,2 UV-I 0,0 C 59 % 80 % 0 % 1014,9 hPa 0,0 l/m 3,8 km/h (1 Bft) 0 min 10,3 km/h (2 Bft)
30.07.2009 07:02 22,4 C 16,9 C 0,2 UV-I 0,0 C 59 % 80 % 0 % 1014,9 hPa 0,0 l/m 3,1 km/h (1 Bft) 0 min 0,0 km/h (0 Bft)
30.07.2009 07:04 22,4 C 17,1 C 0,2 UV-I 0,0 C 59 % 80 % 0 % 1014,9 hPa 0,0 l/m 2,9 km/h (1 Bft) 0 min 6,7 km/h (2 Bft)
30.07.2009 07:06 22,4 C 16,9 C 0,2 UV-I 0,0 C 59 % 80 % 0 % 1014,9 hPa 0,0 l/m 3,4 km/h (1 Bft) 0 min 6,7 km/h (2 Bft)
30.07.2009 07:08 22,4 C 17,0 C 0,2 UV-I 0,0 C 59 % 80 % 0 % 1014,9 hPa 0,0 l/m 4,1 km/h (1 Bft) 0 min 9,1 km/h (2 Bft)
30.07.2009 07:10 22,4 C 17,0 C 0,2 UV-I 0,0 C 59 % 80 % 0 % 1014,9 hPa 0,0 l/m 3,8 km/h (1 Bft) 0 min 11,8 km/h (2 Bft)
30.07.2009 07:12 22,2 C 17,0 C 0,3 UV-I 0,0 C 59 % 80 % 0 % 1014,9 hPa 0,0 l/m 3,8 km/h (1 Bft) 0 min 11,8 km/h (2 Bft)
30.07.2009 07:14 22,2 C 17,0 C 0,3 UV-I 0,0 C 59 % 80 % 0 % 1014,9 hPa 0,0 l/m 4,8 km/h (1 Bft) 0 min 7,2 km/h (2 Bft)
30.07.2009 07:16 22,2 C 17,1 C 0,3 UV-I 0,0 C 59 % 80 % 0 % 1015,4 hPa 0,0 l/m 5,3 km/h (1 Bft) 0 min 15,6 km/h (3 Bft)
30.07.2009 07:18 22,2 C 17,1 C 0,3 UV-I 0,0 C 59 % 80 % 0 % 1015,4 hPa 0,0 l/m 5,3 km/h (1 Bft) 0 min 15,6 km/h (3 Bft)
30.07.2009 07:20 22,3 C 17,1 C 0,3 UV-I 0,0 C 59 % 80 % 0 % 1015,4 hPa 0,0 l/m 5,5 km/h (1 Bft) 0 min 11,5 km/h (2 Bft)
30.07.2009 07:24 22,3 C 17,1 C 0,1 UV-I 0,0 C 59 % 80 % 0 % 1015,4 hPa 0,0 l/m 6,0 km/h (2 Bft) 0 min 12,0 km/h (2 Bft)
30.07.2009 07:26 22,3 C 17,1 C 0,1 UV-I 0,0 C 59 % 80 % 0 % 1015,4 hPa 0,0 l/m 5,8 km/h (2 Bft) 0 min 12,0 km/h (2 Bft)
30.07.2009 07:28 22,3 C 17,0 C 0,1 UV-I 0,0 C 59 % 80 % 0 % 1015,4 hPa 0,0 l/m 5,8 km/h (2 Bft) 0 min 7,5 km/h (2 Bft)
30.07.2009 07:32 22,3 C 17,1 C 0,3 UV-I 0,0 C 59 % 79 % 0 % 1015,4 hPa 0,0 l/m 5,1 km/h (1 Bft) 0 min 7,2 km/h (2 Bft)
30.07.2009 07:34 22,3 C 17,1 C 0,3 UV-I 0,0 C 59 % 79 % 0 % 1015,4 hPa 0,0 l/m 4,8 km/h (1 Bft) 0 min 7,2 km/h (2 Bft)
30.07.2009 07:36 22,3 C 17,0 C 0,2 UV-I 0,0 C 59 % 79 % 0 % 1015,9 hPa 0,0 l/m 4,3 km/h (1 Bft) 0 min 6,3 km/h (2 Bft)
30.07.2009 07:38 22,3 C 17,0 C 0,2 UV-I 0,0 C 59 % 79 % 0 % 1015,9 hPa 0,0 l/m 4,3 km/h (1 Bft) 0 min 9,4 km/h (2 Bft)
30.07.2009 07:40 22,3 C 17,1 C 0,2 UV-I 0,0 C 59 % 79 % 0 % 1015,9 hPa 0,0 l/m 5,3 km/h (1 Bft) 0 min 12,5 km/h (3 Bft)
30.07.2009 07:42 22,3 C 17,1 C 0,1 UV-I 0,0 C 59 % 79 % 0 % 1015,9 hPa 0,0 l/m 5,3 km/h (1 Bft) 0 min 12,5 km/h (3 Bft)
30.07.2009 07:44 22,3 C 17,1 C 0,1 UV-I 0,0 C 59 % 79 % 0 % 1015,9 hPa 0,0 l/m 5,3 km/h (1 Bft) 0 min 6,7 km/h (2 Bft)
30.07.2009 07:46 22,3 C 17,1 C 0,0 UV-I 0,0 C 59 % 79 % 0 % 1015,9 hPa 0,0 l/m 5,5 km/h (1 Bft) 0 min 8,2 km/h (2 Bft)
30.07.2009 07:48 22,2 C 17,1 C 0,0 UV-I 0,0 C 59 % 79 % 0 % 1015,9 hPa 0,0 l/m 5,5 km/h (1 Bft) 0 min 8,2 km/h (2 Bft)
30.07.2009 07:52 22,3 C 17,1 C 0,0 UV-I 0,0 C 59 % 79 % 0 % 1015,9 hPa 0,0 l/m 4,3 km/h (1 Bft) 0 min 6,0 km/h (2 Bft)
30.07.2009 07:54 22,3 C 17,1 C 0,0 UV-I 0,0 C 59 % 78 % 0 % 1015,9 hPa 0,0 l/m 4,6 km/h (1 Bft) 0 min 12,0 km/h (2 Bft)
30.07.2009 07:56 22,2 C 17,0 C 0,0 UV-I 0,0 C 59 % 78 % 0 % 1016,6 hPa 0,0 l/m 5,1 km/h (1 Bft) 0 min 14,0 km/h (3 Bft)
30.07.2009 07:58 22,3 C 17,1 C 0,0 UV-I 0,0 C 59 % 78 % 0 % 1016,6 hPa 0,0 l/m 4,8 km/h (1 Bft) 0 min 14,0 km/h (3 Bft)
30.07.2009 08:00 22,3 C 17,1 C 0,0 UV-I 0,0 C 59 % 78 % 0 % 1016,6 hPa 0,0 l/m 5,3 km/h (1 Bft) 0 min 7,9 km/h (2 Bft)
30.07.2009 08:02 22,2 C 17,1 C 0,2 UV-I 0,0 C 59 % 77 % 0 % 1016,6 hPa 0,0 l/m 6,0 km/h (2 Bft) 0 min 19,7 km/h (3 Bft)
30.07.2009 08:04 22,2 C 17,1 C 0,2 UV-I 0,0 C 58 % 76 % 0 % 1016,6 hPa 0,0 l/m 6,5 km/h (2 Bft) 0 min 7,2 km/h (2 Bft)
30.07.2009 08:06 22,2 C 17,2 C 0,3 UV-I 0,0 C 58 % 76 % 0 % 1016,6 hPa 0,0 l/m 6,7 km/h (2 Bft) 0 min 7,2 km/h (2 Bft)
30.07.2009 08:08 22,2 C 17,1 C 0,3 UV-I 0,0 C 58 % 76 % 0 % 1016,6 hPa 0,0 l/m 6,5 km/h (2 Bft) 0 min 7,5 km/h (2 Bft)
30.07.2009 08:10 22,3 C 17,2 C 0,3 UV-I 0,0 C 58 % 76 % 0 % 1016,6 hPa 0,0 l/m 6,5 km/h (2 Bft) 0 min 15,2 km/h (3 Bft)
30.07.2009 08:12 22,2 C 17,1 C 0,8 UV-I 0,0 C 58 % 76 % 0 % 1016,6 hPa 0,0 l/m 6,3 km/h (2 Bft) 0 min 15,2 km/h (3 Bft)
30.07.2009 08:14 22,2 C 17,2 C 0,8 UV-I 0,0 C 58 % 76 % 0 % 1016,6 hPa 0,0 l/m 5,1 km/h (1 Bft) 0 min 9,6 km/h (2 Bft)
30.07.2009 08:16 22,2 C 17,2 C 1,1 UV-I 0,0 C 58 % 76 % 0 % 1016,4 hPa 0,0 l/m 4,8 km/h (1 Bft) 0 min 9,6 km/h (2 Bft)
30.07.2009 08:18 22,2 C 17,2 C 1,1 UV-I 0,0 C 58 % 76 % 0 % 1016,4 hPa 0,0 l/m 4,6 km/h (1 Bft) 0 min 9,1 km/h (2 Bft)
30.07.2009 08:20 22,2 C 17,2 C 1,1 UV-I 0,0 C 58 % 76 % 0 % 1016,4 hPa 0,0 l/m 4,3 km/h (1 Bft) 0 min 9,1 km/h (2 Bft)
30.07.2009 08:22 22,3 C 17,2 C 1,0 UV-I 0,0 C 58 % 76 % 0 % 1016,4 hPa 0,0 l/m 4,1 km/h (1 Bft) 0 min 7,9 km/h (2 Bft)
30.07.2009 08:24 22,2 C 17,2 C 1,0 UV-I 0,2 C 58 % 76 % 6 % 1016,4 hPa 0,0 l/m 4,3 km/h (1 Bft) 0 min 7,9 km/h (2 Bft)
30.07.2009 08:26 22,3 C 17,2 C 0,4 UV-I 0,4 C 58 % 76 % 11 % 1016,4 hPa 0,0 l/m 4,3 km/h (1 Bft) 0 min 6,0 km/h (2 Bft)
30.07.2009 08:28 22,3 C 17,3 C 0,4 UV-I 0,4 C 58 % 76 % 11 % 1016,4 hPa 0,0 l/m 4,3 km/h (1 Bft) 0 min 6,5 km/h (2 Bft)
30.07.2009 08:30 22,2 C 17,5 C 0,4 UV-I 0,2 C 57 % 76 % 6 % 1016,4 hPa 0,0 l/m 4,3 km/h (1 Bft) 0 min 6,5 km/h (2 Bft)
30.07.2009 08:32 22,3 C 17,4 C 0,4 UV-I 0,3 C 58 % 76 % 9 % 1016,4 hPa 0,0 l/m 5,3 km/h (1 Bft) 0 min 17,8 km/h (3 Bft)
30.07.2009 08:34 22,3 C 17,5 C 0,4 UV-I 0,1 C 57 % 76 % 3 % 1016,4 hPa 0,0 l/m 5,5 km/h (1 Bft) 0 min 17,8 km/h (3 Bft)
30.07.2009 08:36 22,3 C 17,3 C 0,7 UV-I 0,2 C 57 % 75 % 6 % 1016,8 hPa 0,0 l/m 6,5 km/h (2 Bft) 0 min 13,2 km/h (3 Bft)
30.07.2009 08:38 22,3 C 17,3 C 0,7 UV-I 0,2 C 57 % 75 % 6 % 1016,8 hPa 0,0 l/m 6,5 km/h (2 Bft) 0 min 13,2 km/h (3 Bft)
30.07.2009 08:42 22,3 C 17,3 C 0,9 UV-I 0,2 C 57 % 74 % 6 % 1016,8 hPa 0,0 l/m 7,5 km/h (2 Bft) 0 min 9,6 km/h (2 Bft)
30.07.2009 08:44 22,3 C 17,3 C 0,9 UV-I 0,2 C 57 % 74 % 6 % 1016,8 hPa 0,0 l/m 7,5 km/h (2 Bft) 0 min 10,8 km/h (2 Bft)
30.07.2009 08:46 22,3 C 17,3 C 1,3 UV-I 0,2 C 57 % 73 % 6 % 1016,8 hPa 0,0 l/m 7,9 km/h (2 Bft) 0 min 15,6 km/h (3 Bft)
30.07.2009 08:48 22,2 C 17,4 C 1,3 UV-I 0,1 C 57 % 73 % 3 % 1016,8 hPa 0,0 l/m 8,9 km/h (2 Bft) 0 min 18,3 km/h (3 Bft)
30.07.2009 08:50 22,2 C 17,4 C 1,3 UV-I 0,0 C 57 % 73 % 0 % 1016,8 hPa 0,0 l/m 8,4 km/h (2 Bft) 0 min 18,3 km/h (3 Bft)
30.07.2009 08:52 22,4 C 17,4 C 1,8 UV-I 0,1 C 57 % 72 % 3 % 1016,8 hPa 0,0 l/m 8,4 km/h (2 Bft) 0 min 11,3 km/h (2 Bft)
30.07.2009 08:54 22,4 C 17,5 C 1,8 UV-I 0,0 C 57 % 72 % 0 % 1016,8 hPa 0,0 l/m 8,4 km/h (2 Bft) 0 min 11,3 km/h (2 Bft)
30.07.2009 08:56 22,4 C 17,5 C 1,6 UV-I 0,1 C 57 % 72 % 3 % 1017,4 hPa 0,0 l/m 8,2 km/h (2 Bft) 0 min 11,8 km/h (2 Bft)
30.07.2009 08:58 22,4 C 17,5 C 1,6 UV-I 0,2 C 57 % 72 % 6 % 1017,4 hPa 0,0 l/m 7,7 km/h (2 Bft) 0 min 17,8 km/h (3 Bft)
30.07.2009 09:00 22,4 C 17,5 C 1,6 UV-I 0,2 C 57 % 70 % 6 % 1017,4 hPa 0,0 l/m 7,5 km/h (2 Bft) 0 min 14,0 km/h (3 Bft)
30.07.2009 09:02 22,4 C 17,5 C 1,8 UV-I 0,1 C 57 % 70 % 3 % 1017,4 hPa 0,0 l/m 7,7 km/h (2 Bft) 0 min 9,9 km/h (2 Bft)
30.07.2009 09:04 22,4 C 17,5 C 1,8 UV-I 0,1 C 57 % 70 % 3 % 1017,4 hPa 0,0 l/m 7,5 km/h (2 Bft) 0 min 6,5 km/h (2 Bft)
30.07.2009 09:06 22,4 C 17,5 C 1,6 UV-I 0,1 C 57 % 70 % 3 % 1017,4 hPa 0,0 l/m 7,5 km/h (2 Bft) 0 min 12,8 km/h (3 Bft)
30.07.2009 09:08 22,4 C 17,6 C 1,6 UV-I 0,0 C 56 % 71 % 0 % 1017,4 hPa 0,0 l/m 6,7 km/h (2 Bft) 0 min 12,8 km/h (3 Bft)
30.07.2009 09:10 22,4 C 17,7 C 1,6 UV-I 0,0 C 56 % 70 % 0 % 1017,4 hPa 0,0 l/m 6,3 km/h (2 Bft) 0 min 8,2 km/h (2 Bft)
30.07.2009 09:12 22,4 C 17,7 C 1,7 UV-I 0,0 C 56 % 69 % 0 % 1017,4 hPa 0,0 l/m 6,5 km/h (2 Bft) 0 min 7,9 km/h (2 Bft)
30.07.2009 09:14 22,4 C 17,7 C 1,7 UV-I 0,1 C 56 % 70 % 3 % 1017,4 hPa 0,0 l/m 6,0 km/h (2 Bft) 0 min 7,9 km/h (2 Bft)
30.07.2009 09:16 22,4 C 17,7 C 2,0 UV-I 0,4 C 56 % 70 % 11 % 1017,9 hPa 0,0 l/m 6,3 km/h (2 Bft) 0 min 4,6 km/h (1 Bft)
30.07.2009 09:18 22,5 C 17,9 C 2,0 UV-I 0,3 C 56 % 70 % 9 % 1017,9 hPa 0,0 l/m 6,7 km/h (2 Bft) 0 min 15,4 km/h (3 Bft)
30.07.2009 09:22 22,5 C 17,8 C 2,0 UV-I 0,6 C 56 % 70 % 17 % 1017,9 hPa 0,0 l/m 5,5 km/h (1 Bft) 0 min 15,4 km/h (3 Bft)
30.07.2009 09:24 22,5 C 17,9 C 2,0 UV-I 0,5 C 56 % 70 % 14 % 1017,9 hPa 0,0 l/m 5,8 km/h (2 Bft) 0 min 6,7 km/h (2 Bft)
30.07.2009 09:26 22,6 C 17,9 C 2,0 UV-I 0,5 C 56 % 70 % 14 % 1017,9 hPa 0,0 l/m 5,8 km/h (2 Bft) 0 min 6,7 km/h (2 Bft)
30.07.2009 09:30 22,6 C 17,8 C 2,0 UV-I 0,6 C 56 % 70 % 17 % 1017,9 hPa 0,0 l/m 5,5 km/h (1 Bft) 0 min 8,9 km/h (2 Bft)
30.07.2009 09:32 22,6 C 17,8 C 1,3 UV-I 0,6 C 56 % 70 % 17 % 1017,9 hPa 0,0 l/m 5,8 km/h (2 Bft) 0 min 8,9 km/h (2 Bft)
30.07.2009 09:34 22,6 C 17,9 C 1,3 UV-I 0,5 C 56 % 71 % 14 % 1017,9 hPa 0,0 l/m 5,5 km/h (1 Bft) 0 min 11,5 km/h (2 Bft)
30.07.2009 09:36 22,6 C 17,9 C 1,9 UV-I 0,5 C 56 % 70 % 14 % 1018,4 hPa 0,0 l/m 6,3 km/h (2 Bft) 0 min 9,4 km/h (2 Bft)
30.07.2009 09:38 22,6 C 17,9 C 1,9 UV-I 0,5 C 56 % 69 % 14 % 1018,4 hPa 0,0 l/m 7,0 km/h (2 Bft) 0 min 9,4 km/h (2 Bft)
30.07.2009 09:40 22,6 C 17,9 C 1,9 UV-I 0,6 C 56 % 70 % 17 % 1018,4 hPa 0,0 l/m 6,7 km/h (2 Bft) 0 min 3,6 km/h (1 Bft)
30.07.2009 09:42 22,7 C 17,9 C 2,0 UV-I 0,7 C 56 % 69 % 20 % 1018,4 hPa 0,0 l/m 6,7 km/h (2 Bft) 0 min 6,0 km/h (2 Bft)
30.07.2009 09:46 22,7 C 17,9 C 1,9 UV-I 0,8 C 56 % 68 % 23 % 1018,4 hPa 0,0 l/m 7,9 km/h (2 Bft) 0 min 14,9 km/h (3 Bft)
30.07.2009 09:48 22,7 C 17,9 C 1,9 UV-I 0,7 C 56 % 68 % 20 % 1018,4 hPa 0,0 l/m 7,2 km/h (2 Bft) 0 min 9,4 km/h (2 Bft)
30.07.2009 09:52 22,7 C 17,9 C 2,5 UV-I 1,3 C 56 % 67 % 37 % 1018,4 hPa 0,0 l/m 7,5 km/h (2 Bft) 0 min 14,0 km/h (3 Bft)
30.07.2009 09:54 22,8 C 18,1 C 2,5 UV-I 1,9 C 55 % 67 % 54 % 1018,4 hPa 0,0 l/m 8,2 km/h (2 Bft) 0 min 14,0 km/h (3 Bft)
30.07.2009 09:58 22,8 C 18,0 C 2,6 UV-I 2,6 C 55 % 66 % 74 % 1018,7 hPa 0,0 l/m 8,4 km/h (2 Bft) 0 min 14,9 km/h (3 Bft)
30.07.2009 10:00 22,8 C 18,0 C 2,6 UV-I 3,1 C 55 % 66 % 89 % 1018,7 hPa 0,0 l/m 9,1 km/h (2 Bft) 2 min 9,1 km/h (2 Bft)
30.07.2009 10:02 22,8 C 18,1 C 2,6 UV-I 3,1 C 55 % 66 % 89 % 1018,7 hPa 0,0 l/m 8,9 km/h (2 Bft) 2 min 26,7 km/h (4 Bft)
30.07.2009 10:04 22,8 C 18,1 C 2,6 UV-I 3,4 C 55 % 66 % 97 % 1018,7 hPa 0,0 l/m 8,7 km/h (2 Bft) 2 min 10,1 km/h (2 Bft)
30.07.2009 10:06 22,8 C 18,1 C 3,9 UV-I 3,8 C 55 % 66 % 100 % 1018,7 hPa 0,0 l/m 8,2 km/h (2 Bft) 2 min 11,5 km/h (2 Bft)
30.07.2009 10:08 22,8 C 18,3 C 3,9 UV-I 3,9 C 55 % 66 % 100 % 1018,7 hPa 0,0 l/m 7,9 km/h (2 Bft) 2 min 11,5 km/h (2 Bft)
30.07.2009 10:10 22,8 C 18,2 C 3,9 UV-I 4,4 C 55 % 66 % 100 % 1018,7 hPa 0,0 l/m 7,5 km/h (2 Bft) 2 min 16,4 km/h (3 Bft)
30.07.2009 10:16 22,8 C 18,3 C 3,4 UV-I 3,0 C 55 % 67 % 86 % 1019,1 hPa 0,0 l/m 7,7 km/h (2 Bft) 2 min 16,4 km/h (3 Bft)
30.07.2009 10:20 22,8 C 18,4 C 3,4 UV-I 2,7 C 55 % 67 % 77 % 1019,1 hPa 0,0 l/m 7,9 km/h (2 Bft) 0 min 22,6 km/h (4 Bft)
30.07.2009 10:24 22,8 C 18,5 C 10,7 UV-I 3,1 C 55 % 66 % 89 % 1019,1 hPa 0,0 l/m 8,9 km/h (2 Bft) 2 min 12,5 km/h (3 Bft)
30.07.2009 10:26 22,9 C 18,6 C 12,9 UV-I 3,4 C 55 % 66 % 97 % 1019,1 hPa 0,0 l/m 8,7 km/h (2 Bft) 2 min 11,3 km/h (2 Bft)
30.07.2009 10:28 22,9 C 18,7 C 12,9 UV-I 3,7 C 55 % 66 % 100 % 1019,1 hPa 0,0 l/m 9,1 km/h (2 Bft) 2 min 23,3 km/h (4 Bft)
30.07.2009 10:30 22,9 C 18,9 C 12,9 UV-I 3,9 C 55 % 65 % 100 % 1019,1 hPa 0,0 l/m 9,1 km/h (2 Bft) 2 min 23,3 km/h (4 Bft)
30.07.2009 10:32 22,9 C 18,8 C 11,5 UV-I 3,7 C 55 % 64 % 100 % 1019,1 hPa 0,0 l/m 9,6 km/h (2 Bft) 2 min 15,6 km/h (3 Bft)
30.07.2009 10:34 22,9 C 18,8 C 11,5 UV-I 3,8 C 55 % 64 % 100 % 1019,1 hPa 0,0 l/m 9,1 km/h (2 Bft) 2 min 13,0 km/h (3 Bft)
30.07.2009 10:36 22,9 C 18,9 C 13,9 UV-I 3,8 C 55 % 64 % 100 % 1019,2 hPa 0,0 l/m 9,1 km/h (2 Bft) 2 min 11,3 km/h (2 Bft)
30.07.2009 10:38 22,9 C 19,0 C 13,9 UV-I 3,9 C 54 % 64 % 100 % 1019,2 hPa 0,0 l/m 9,6 km/h (2 Bft) 2 min 7,2 km/h (2 Bft)
30.07.2009 10:40 22,9 C 19,1 C 13,9 UV-I 4,0 C 54 % 64 % 100 % 1019,2 hPa 0,0 l/m 8,9 km/h (2 Bft) 2 min 12,8 km/h (3 Bft)
30.07.2009 10:42 22,9 C 19,2 C 14,2 UV-I 4,2 C 55 % 64 % 100 % 1019,2 hPa 0,0 l/m 8,2 km/h (2 Bft) 2 min 12,8 km/h (3 Bft)
30.07.2009 10:44 22,9 C 19,3 C 14,2 UV-I 4,3 C 54 % 64 % 100 % 1019,2 hPa 0,0 l/m 7,0 km/h (2 Bft) 2 min 9,1 km/h (2 Bft)
30.07.2009 10:46 22,9 C 19,3 C 6,0 UV-I 4,4 C 54 % 64 % 100 % 1019,2 hPa 0,0 l/m 6,3 km/h (2 Bft) 2 min 9,4 km/h (2 Bft)
30.07.2009 10:48 22,9 C 19,3 C 6,0 UV-I 4,1 C 54 % 64 % 100 % 1019,2 hPa 0,0 l/m 6,3 km/h (2 Bft) 2 min 9,4 km/h (2 Bft)
30.07.2009 10:50 22,9 C 19,3 C 6,0 UV-I 3,6 C 54 % 64 % 100 % 1019,2 hPa 0,0 l/m 6,0 km/h (2 Bft) 2 min 7,9 km/h (2 Bft)
30.07.2009 10:56 23,0 C 19,4 C 10,2 UV-I 2,8 C 54 % 63 % 80 % 1019,8 hPa 0,0 l/m 7,7 km/h (2 Bft) 0 min 11,3 km/h (2 Bft)
30.07.2009 10:58 23,0 C 19,3 C 10,2 UV-I 3,4 C 54 % 64 % 97 % 1019,8 hPa 0,0 l/m 7,2 km/h (2 Bft) 2 min 4,8 km/h (1 Bft)
30.07.2009 11:00 23,0 C 19,4 C 10,2 UV-I 3,5 C 54 % 64 % 100 % 1019,8 hPa 0,0 l/m 6,7 km/h (2 Bft) 2 min 8,7 km/h (2 Bft)
30.07.2009 11:04 23,0 C 19,6 C 9,4 UV-I 3,5 C 54 % 62 % 100 % 1019,8 hPa 0,0 l/m 6,3 km/h (2 Bft) 2 min 14,4 km/h (3 Bft)
30.07.2009 11:10 23,0 C 19,6 C 6,7 UV-I 2,4 C 54 % 62 % 69 % 1019,8 hPa 0,0 l/m 7,5 km/h (2 Bft) 0 min 14,4 km/h (3 Bft)
30.07.2009 11:12 23,0 C 19,6 C 8,7 UV-I 2,4 C 54 % 61 % 69 % 1019,8 hPa 0,0 l/m 7,9 km/h (2 Bft) 0 min 9,9 km/h (2 Bft)
30.07.2009 11:14 23,0 C 19,5 C 8,7 UV-I 2,7 C 54 % 62 % 77 % 1019,8 hPa 0,0 l/m 7,9 km/h (2 Bft) 0 min 8,2 km/h (2 Bft)
30.07.2009 11:18 23,0 C 19,6 C 7,1 UV-I 2,9 C 54 % 63 % 83 % 1019,9 hPa 0,0 l/m 7,5 km/h (2 Bft) 2 min 10,1 km/h (2 Bft)
30.07.2009 11:22 23,0 C 19,9 C 12,2 UV-I 3,5 C 54 % 61 % 100 % 1019,9 hPa 0,0 l/m 7,0 km/h (2 Bft) 2 min 20,0 km/h (4 Bft)
30.07.2009 11:26 23,0 C 19,9 C 6,7 UV-I 3,5 C 54 % 60 % 100 % 1019,9 hPa 0,0 l/m 7,2 km/h (2 Bft) 2 min 13,5 km/h (3 Bft)
30.07.2009 11:28 23,1 C 19,9 C 6,7 UV-I 3,3 C 54 % 60 % 94 % 1019,9 hPa 0,0 l/m 7,2 km/h (2 Bft) 2 min 13,5 km/h (3 Bft)
30.07.2009 11:32 23,1 C 20,0 C 5,3 UV-I 3,0 C 54 % 60 % 86 % 1019,9 hPa 0,0 l/m 6,7 km/h (2 Bft) 2 min 10,1 km/h (2 Bft)
30.07.2009 11:36 23,1 C 20,0 C 5,3 UV-I 2,1 C 54 % 60 % 60 % 1020,2 hPa 0,0 l/m 6,3 km/h (2 Bft) 0 min 10,6 km/h (2 Bft)
30.07.2009 11:38 23,1 C 20,0 C 5,3 UV-I 1,6 C 54 % 59 % 46 % 1020,2 hPa 0,0 l/m 6,0 km/h (2 Bft) 0 min 10,6 km/h (2 Bft)
30.07.2009 11:39 23,1 C 19,9 C 5,3 UV-I 1,8 C 53 % 60 % 51 % 1020,2 hPa 0,0 l/m 6,5 km/h (2 Bft) 0 min 10,6 km/h (2 Bft)
30.07.2009 11:44 23,1 C 20,1 C 11,7 UV-I 2,4 C 54 % 59 % 69 % 1020,2 hPa 0,0 l/m 6,5 km/h (2 Bft) 0 min 13,7 km/h (3 Bft)
30.07.2009 11:45 23,1 C 20,0 C 3,1 UV-I 2,5 C 53 % 59 % 71 % 1020,2 hPa 0,0 l/m 6,5 km/h (2 Bft) 0 min 13,7 km/h (3 Bft)
30.07.2009 11:46 23,1 C 20,0 C 3,1 UV-I 2,3 C 53 % 59 % 66 % 1020,2 hPa 0,0 l/m 7,2 km/h (2 Bft) 0 min 12,8 km/h (3 Bft)
30.07.2009 11:50 23,1 C 19,9 C 3,1 UV-I 1,3 C 53 % 58 % 37 % 1020,2 hPa 0,0 l/m 8,4 km/h (2 Bft) 0 min 17,8 km/h (3 Bft)
30.07.2009 11:54 23,1 C 20,0 C 5,1 UV-I 1,8 C 53 % 58 % 51 % 1020,2 hPa 0,0 l/m 8,4 km/h (2 Bft) 0 min 28,6 km/h (4 Bft)
30.07.2009 11:56 23,1 C 20,1 C 6,4 UV-I 2,1 C 53 % 58 % 60 % 1020,4 hPa 0,0 l/m 8,4 km/h (2 Bft) 0 min 14,7 km/h (3 Bft)
30.07.2009 11:58 23,2 C 20,0 C 6,4 UV-I 2,2 C 53 % 57 % 63 % 1020,4 hPa 0,0 l/m 8,7 km/h (2 Bft) 0 min 10,6 km/h (2 Bft)
30.07.2009 12:00 23,2 C 20,0 C 6,4 UV-I 2,0 C 53 % 57 % 57 % 1020,4 hPa 0,0 l/m 8,7 km/h (2 Bft) 0 min 10,6 km/h (2 Bft)
30.07.2009 12:02 23,2 C 20,0 C 5,1 UV-I 1,9 C 53 % 58 % 54 % 1020,4 hPa 0,0 l/m 8,2 km/h (2 Bft) 0 min 15,6 km/h (3 Bft)
30.07.2009 12:04 23,2 C 20,1 C 5,1 UV-I 2,1 C 53 % 58 % 60 % 1020,4 hPa 0,0 l/m 7,9 km/h (2 Bft) 0 min 9,9 km/h (2 Bft)
30.07.2009 12:06 23,2 C 20,2 C 5,5 UV-I 2,2 C 53 % 57 % 63 % 1020,4 hPa 0,0 l/m 8,7 km/h (2 Bft) 0 min 14,4 km/h (3 Bft)
30.07.2009 12:08 23,2 C 20,3 C 5,5 UV-I 2,0 C 53 % 57 % 57 % 1020,4 hPa 0,0 l/m 8,2 km/h (2 Bft) 0 min 14,4 km/h (3 Bft)
30.07.2009 12:10 23,2 C 20,2 C 5,5 UV-I 2,3 C 53 % 57 % 66 % 1020,4 hPa 0,0 l/m 7,9 km/h (2 Bft) 0 min 15,4 km/h (3 Bft)
30.07.2009 12:12 23,2 C 20,3 C 4,0 UV-I 1,9 C 53 % 57 % 54 % 1020,4 hPa 0,0 l/m 7,7 km/h (2 Bft) 0 min 15,4 km/h (3 Bft)
30.07.2009 12:14 23,2 C 20,1 C 4,0 UV-I 1,8 C 53 % 57 % 51 % 1020,4 hPa 0,0 l/m 7,5 km/h (2 Bft) 0 min 13,2 km/h (3 Bft)
30.07.2009 12:16 23,2 C 20,1 C 4,3 UV-I 1,7 C 53 % 57 % 49 % 1020,6 hPa 0,0 l/m 7,2 km/h (2 Bft) 0 min 13,2 km/h (3 Bft)
30.07.2009 12:20 23,2 C 20,2 C 4,3 UV-I 1,9 C 53 % 57 % 54 % 1020,6 hPa 0,0 l/m 7,2 km/h (2 Bft) 0 min 14,2 km/h (3 Bft)
30.07.2009 12:24 23,2 C 20,2 C 5,8 UV-I 2,3 C 53 % 57 % 66 % 1020,6 hPa 0,0 l/m 7,9 km/h (2 Bft) 0 min 11,8 km/h (2 Bft)
30.07.2009 12:26 23,2 C 20,3 C 6,7 UV-I 2,4 C 52 % 57 % 69 % 1020,6 hPa 0,0 l/m 8,7 km/h (2 Bft) 0 min 13,7 km/h (3 Bft)
30.07.2009 12:28 23,2 C 20,4 C 6,7 UV-I 2,6 C 53 % 57 % 74 % 1020,6 hPa 0,0 l/m 9,1 km/h (2 Bft) 0 min 16,1 km/h (3 Bft)
30.07.2009 12:32 23,2 C 20,5 C 6,4 UV-I 2,9 C 52 % 57 % 83 % 1020,6 hPa 0,0 l/m 8,4 km/h (2 Bft) 2 min 16,1 km/h (3 Bft)
30.07.2009 12:34 23,2 C 20,5 C 6,4 UV-I 2,9 C 52 % 56 % 83 % 1020,6 hPa 0,0 l/m 8,9 km/h (2 Bft) 2 min 8,9 km/h (2 Bft)
30.07.2009 12:42 23,2 C 20,5 C 6,6 UV-I 2,2 C 52 % 57 % 63 % 1021,2 hPa 0,0 l/m 8,7 km/h (2 Bft) 0 min 15,2 km/h (3 Bft)
30.07.2009 12:48 23,2 C 20,8 C 7,9 UV-I 3,5 C 52 % 56 % 100 % 1021,2 hPa 0,0 l/m 7,5 km/h (2 Bft) 2 min 15,2 km/h (3 Bft)
30.07.2009 12:50 23,2 C 20,9 C 7,9 UV-I 3,8 C 52 % 56 % 100 % 1021,2 hPa 0,0 l/m 7,5 km/h (2 Bft) 2 min 12,5 km/h (3 Bft)
30.07.2009 12:52 23,2 C 20,9 C 5,2 UV-I 3,5 C 52 % 56 % 100 % 1021,2 hPa 0,0 l/m 7,5 km/h (2 Bft) 2 min 12,5 km/h (3 Bft)
30.07.2009 12:58 23,4 C 20,8 C 2,8 UV-I 1,9 C 52 % 55 % 54 % 1021,1 hPa 0,0 l/m 7,5 km/h (2 Bft) 0 min 10,8 km/h (2 Bft)
30.07.2009 13:04 23,4 C 20,8 C 3,2 UV-I 1,4 C 52 % 55 % 40 % 1021,1 hPa 0,0 l/m 6,0 km/h (2 Bft) 0 min 10,8 km/h (2 Bft)
30.07.2009 13:06 23,4 C 20,8 C 3,4 UV-I 1,1 C 52 % 55 % 31 % 1021,1 hPa 0,0 l/m 6,5 km/h (2 Bft) 0 min 13,7 km/h (3 Bft)
30.07.2009 13:08 23,4 C 20,8 C 3,4 UV-I 1,1 C 52 % 55 % 31 % 1021,1 hPa 0,0 l/m 6,7 km/h (2 Bft) 0 min 9,1 km/h (2 Bft)
30.07.2009 13:10 23,4 C 20,9 C 3,4 UV-I 1,6 C 52 % 55 % 46 % 1021,1 hPa 0,0 l/m 5,8 km/h (2 Bft) 0 min 6,5 km/h (2 Bft)
30.07.2009 13:12 23,4 C 21,1 C 7,4 UV-I 2,3 C 52 % 55 % 66 % 1021,1 hPa 0,0 l/m 6,5 km/h (2 Bft) 0 min 16,6 km/h (3 Bft)
30.07.2009 13:16 23,4 C 21,3 C 6,4 UV-I 3,4 C 52 % 54 % 97 % 1021,2 hPa 0,0 l/m 6,5 km/h (2 Bft) 2 min 16,6 km/h (3 Bft)
30.07.2009 13:18 23,4 C 21,5 C 6,4 UV-I 3,0 C 52 % 54 % 86 % 1021,2 hPa 0,0 l/m 6,0 km/h (2 Bft) 2 min 7,2 km/h (2 Bft)
30.07.2009 13:20 23,5 C 21,4 C 6,4 UV-I 3,1 C 52 % 54 % 89 % 1021,2 hPa 0,0 l/m 6,3 km/h (2 Bft) 2 min 16,4 km/h (3 Bft)
30.07.2009 13:22 23,5 C 21,5 C 4,7 UV-I 2,6 C 52 % 54 % 74 % 1021,2 hPa 0,0 l/m 6,5 km/h (2 Bft) 0 min 16,4 km/h (3 Bft)
30.07.2009 13:24 23,5 C 21,4 C 4,7 UV-I 2,4 C 52 % 54 % 69 % 1021,2 hPa 0,0 l/m 6,7 km/h (2 Bft) 0 min 10,8 km/h (2 Bft)
30.07.2009 13:26 23,5 C 21,4 C 5,9 UV-I 2,4 C 52 % 54 % 69 % 1021,2 hPa 0,0 l/m 6,7 km/h (2 Bft) 0 min 9,1 km/h (2 Bft)
30.07.2009 13:28 23,5 C 21,4 C 5,9 UV-I 2,6 C 52 % 54 % 74 % 1021,2 hPa 0,0 l/m 7,0 km/h (2 Bft) 0 min 12,8 km/h (3 Bft)
30.07.2009 13:30 23,5 C 21,4 C 5,9 UV-I 2,5 C 52 % 53 % 71 % 1021,2 hPa 0,0 l/m 7,9 km/h (2 Bft) 0 min 12,8 km/h (3 Bft)
30.07.2009 13:32 23,6 C 21,4 C 3,9 UV-I 2,1 C 52 % 53 % 60 % 1021,2 hPa 0,0 l/m 8,7 km/h (2 Bft) 0 min 9,1 km/h (2 Bft)
30.07.2009 13:36 23,6 C 21,5 C 5,6 UV-I 1,5 C 51 % 54 % 43 % 1021,1 hPa 0,0 l/m 7,2 km/h (2 Bft) 0 min 2,6 km/h (1 Bft)
30.07.2009 13:38 23,6 C 21,6 C 5,6 UV-I 2,2 C 52 % 54 % 63 % 1021,1 hPa 0,0 l/m 6,7 km/h (2 Bft) 0 min 8,2 km/h (2 Bft)
30.07.2009 13:42 23,6 C 21,7 C 6,8 UV-I 2,9 C 52 % 53 % 83 % 1021,1 hPa 0,0 l/m 6,0 km/h (2 Bft) 2 min 14,4 km/h (3 Bft)
30.07.2009 13:44 23,6 C 21,8 C 6,8 UV-I 2,7 C 51 % 53 % 77 % 1021,1 hPa 0,0 l/m 6,0 km/h (2 Bft) 0 min 14,4 km/h (3 Bft)
30.07.2009 13:46 23,6 C 21,8 C 5,8 UV-I 2,7 C 51 % 52 % 77 % 1021,1 hPa 0,0 l/m 6,7 km/h (2 Bft) 0 min 16,8 km/h (3 Bft)
30.07.2009 13:48 23,6 C 21,8 C 5,8 UV-I 2,4 C 51 % 52 % 69 % 1021,1 hPa 0,0 l/m 7,7 km/h (2 Bft) 0 min 16,8 km/h (3 Bft)
30.07.2009 13:49 23,7 C 21,8 C 5,8 UV-I 2,7 C 51 % 51 % 77 % 1021,1 hPa 0,0 l/m 7,5 km/h (2 Bft) 0 min 12,8 km/h (3 Bft)
30.07.2009 13:52 23,7 C 21,8 C 7,5 UV-I 2,9 C 51 % 52 % 83 % 1021,1 hPa 0,0 l/m 7,7 km/h (2 Bft) 2 min 12,0 km/h (2 Bft)
30.07.2009 13:54 23,7 C 21,9 C 7,5 UV-I 3,1 C 51 % 52 % 89 % 1021,1 hPa 0,0 l/m 7,7 km/h (2 Bft) 2 min 25,0 km/h (4 Bft)
30.07.2009 13:56 23,7 C 22,0 C 7,6 UV-I 3,2 C 51 % 51 % 91 % 1021,0 hPa 0,0 l/m 8,7 km/h (2 Bft) 2 min 25,0 km/h (4 Bft)
30.07.2009 13:58 23,8 C 22,1 C 7,6 UV-I 3,3 C 51 % 50 % 94 % 1021,0 hPa 0,0 l/m 8,4 km/h (2 Bft) 2 min 19,2 km/h (3 Bft)
30.07.2009 14:00 23,8 C 22,3 C 7,6 UV-I 3,3 C 51 % 51 % 94 % 1021,0 hPa 0,0 l/m 8,9 km/h (2 Bft) 2 min 19,2 km/h (3 Bft)
30.07.2009 14:02 23,8 C 22,3 C 6,9 UV-I 3,3 C 51 % 50 % 94 % 1021,0 hPa 0,0 l/m 8,7 km/h (2 Bft) 2 min 10,8 km/h (2 Bft)
30.07.2009 14:04 23,8 C 22,3 C 6,9 UV-I 3,4 C 51 % 50 % 97 % 1021,0 hPa 0,0 l/m 8,4 km/h (2 Bft) 2 min 8,7 km/h (2 Bft)
30.07.2009 14:06 23,9 C 22,4 C 7,5 UV-I 3,5 C 51 % 49 % 100 % 1021,0 hPa 0,0 l/m 7,9 km/h (2 Bft) 2 min 11,1 km/h (2 Bft)
30.07.2009 14:08 23,9 C 22,4 C 7,5 UV-I 3,7 C 51 % 49 % 100 % 1021,0 hPa 0,0 l/m 7,9 km/h (2 Bft) 2 min 11,1 km/h (2 Bft)
30.07.2009 14:10 23,9 C 22,5 C 7,5 UV-I 3,6 C 51 % 49 % 100 % 1021,0 hPa 0,0 l/m 7,9 km/h (2 Bft) 2 min 9,4 km/h (2 Bft)
30.07.2009 14:12 23,9 C 22,4 C 5,8 UV-I 3,3 C 51 % 49 % 94 % 1021,0 hPa 0,0 l/m 8,2 km/h (2 Bft) 2 min 15,6 km/h (3 Bft)
30.07.2009 14:14 24,0 C 22,4 C 5,8 UV-I 3,0 C 51 % 49 % 86 % 1021,0 hPa 0,0 l/m 7,9 km/h (2 Bft) 2 min 15,6 km/h (3 Bft)
30.07.2009 14:16 24,0 C 22,4 C 5,7 UV-I 2,9 C 51 % 49 % 83 % 1021,1 hPa 0,0 l/m 8,2 km/h (2 Bft) 2 min 12,3 km/h (3 Bft)
30.07.2009 14:18 24,0 C 22,5 C 5,7 UV-I 2,6 C 51 % 49 % 74 % 1021,1 hPa 0,0 l/m 7,9 km/h (2 Bft) 0 min 12,3 km/h (3 Bft)
30.07.2009 14:20 24,0 C 22,6 C 5,7 UV-I 2,6 C 51 % 48 % 74 % 1021,1 hPa 0,0 l/m 7,7 km/h (2 Bft) 0 min 11,1 km/h (2 Bft)
30.07.2009 14:22 24,0 C 22,5 C 7,2 UV-I 2,8 C 51 % 48 % 80 % 1021,1 hPa 0,0 l/m 7,5 km/h (2 Bft) 0 min 14,2 km/h (3 Bft)
30.07.2009 14:24 24,1 C 22,5 C 7,2 UV-I 2,6 C 50 % 48 % 74 % 1021,1 hPa 0,0 l/m 7,7 km/h (2 Bft) 0 min 14,2 km/h (3 Bft)
30.07.2009 14:26 24,1 C 22,5 C 4,9 UV-I 2,5 C 50 % 49 % 71 % 1021,1 hPa 0,0 l/m 7,5 km/h (2 Bft) 0 min 15,2 km/h (3 Bft)
30.07.2009 14:28 24,1 C 22,4 C 4,9 UV-I 2,2 C 50 % 47 % 63 % 1021,1 hPa 0,0 l/m 7,7 km/h (2 Bft) 0 min 15,2 km/h (3 Bft)
30.07.2009 14:30 24,2 C 22,4 C 4,9 UV-I 1,8 C 50 % 46 % 51 % 1021,1 hPa 0,0 l/m 8,4 km/h (2 Bft) 0 min 22,1 km/h (4 Bft)
30.07.2009 14:32 24,2 C 22,3 C 2,8 UV-I 1,4 C 50 % 47 % 40 % 1021,1 hPa 0,0 l/m 8,7 km/h (2 Bft) 0 min 22,1 km/h (4 Bft)
30.07.2009 14:34 24,2 C 22,2 C 2,8 UV-I 1,0 C 50 % 47 % 29 % 1021,1 hPa 0,0 l/m 8,4 km/h (2 Bft) 0 min 13,5 km/h (3 Bft)
30.07.2009 14:36 24,2 C 22,3 C 4,2 UV-I 0,8 C 50 % 48 % 23 % 1021,1 hPa 0,0 l/m 9,1 km/h (2 Bft) 0 min 14,2 km/h (3 Bft)
30.07.2009 14:38 24,2 C 22,2 C 4,2 UV-I 1,2 C 50 % 48 % 34 % 1021,1 hPa 0,0 l/m 9,1 km/h (2 Bft) 0 min 14,2 km/h (3 Bft)
30.07.2009 14:40 24,2 C 22,3 C 4,2 UV-I 1,5 C 50 % 48 % 43 % 1021,1 hPa 0,0 l/m 9,1 km/h (2 Bft) 0 min 9,9 km/h (2 Bft)
30.07.2009 14:42 24,2 C 22,3 C 5,8 UV-I 1,6 C 50 % 48 % 46 % 1021,1 hPa 0,0 l/m 8,7 km/h (2 Bft) 0 min 15,6 km/h (3 Bft)
30.07.2009 14:44 24,3 C 22,4 C 5,8 UV-I 1,6 C 50 % 48 % 46 % 1021,1 hPa 0,0 l/m 8,4 km/h (2 Bft) 0 min 15,6 km/h (3 Bft)
30.07.2009 14:46 24,3 C 22,3 C 4,2 UV-I 1,6 C 50 % 48 % 46 % 1021,1 hPa 0,0 l/m 7,5 km/h (2 Bft) 0 min 7,5 km/h (2 Bft)
30.07.2009 14:48 24,3 C 22,4 C 4,2 UV-I 1,5 C 50 % 48 % 43 % 1021,1 hPa 0,0 l/m 7,5 km/h (2 Bft) 0 min 13,5 km/h (3 Bft)
30.07.2009 14:50 24,3 C 22,3 C 4,2 UV-I 1,4 C 50 % 47 % 40 % 1021,1 hPa 0,0 l/m 7,7 km/h (2 Bft) 0 min 13,5 km/h (3 Bft)
30.07.2009 14:52 24,2 C 22,3 C 4,8 UV-I 1,4 C 50 % 48 % 40 % 1021,1 hPa 0,0 l/m 6,7 km/h (2 Bft) 0 min 8,7 km/h (2 Bft)
30.07.2009 14:54 24,4 C 22,3 C 4,8 UV-I 1,6 C 50 % 48 % 46 % 1021,1 hPa 0,0 l/m 7,0 km/h (2 Bft) 0 min 9,9 km/h (2 Bft)
30.07.2009 14:56 24,4 C 22,3 C 5,7 UV-I 2,0 C 50 % 48 % 57 % 1021,1 hPa 0,0 l/m 6,7 km/h (2 Bft) 0 min 9,9 km/h (2 Bft)
30.07.2009 14:58 24,4 C 22,5 C 5,7 UV-I 2,1 C 50 % 49 % 60 % 1021,1 hPa 0,0 l/m 6,7 km/h (2 Bft) 0 min 9,6 km/h (2 Bft)
30.07.2009 15:00 24,4 C 22,5 C 5,7 UV-I 2,5 C 49 % 49 % 71 % 1021,1 hPa 0,0 l/m 6,5 km/h (2 Bft) 0 min 9,6 km/h (2 Bft)
30.07.2009 15:02 24,4 C 22,6 C 5,4 UV-I 2,6 C 49 % 49 % 74 % 1021,1 hPa 0,0 l/m 6,3 km/h (2 Bft) 0 min 8,7 km/h (2 Bft)
30.07.2009 15:04 24,4 C 22,6 C 5,4 UV-I 2,5 C 50 % 49 % 71 % 1021,1 hPa 0,0 l/m 5,8 km/h (2 Bft) 0 min 12,5 km/h (3 Bft)
30.07.2009 15:06 24,4 C 22,5 C 3,4 UV-I 2,4 C 50 % 48 % 69 % 1021,1 hPa 0,0 l/m 5,8 km/h (2 Bft) 0 min 12,5 km/h (3 Bft)
30.07.2009 15:08 24,4 C 22,5 C 3,4 UV-I 2,1 C 50 % 48 % 60 % 1021,1 hPa 0,0 l/m 6,0 km/h (2 Bft) 0 min 9,6 km/h (2 Bft)
30.07.2009 15:10 24,4 C 22,4 C 3,4 UV-I 1,9 C 50 % 47 % 54 % 1021,1 hPa 0,0 l/m 6,0 km/h (2 Bft) 0 min 9,6 km/h (2 Bft)
30.07.2009 15:12 24,5 C 22,4 C 3,6 UV-I 1,6 C 50 % 47 % 46 % 1021,1 hPa 0,0 l/m 5,5 km/h (1 Bft) 0 min 9,6 km/h (2 Bft)
30.07.2009 15:14 24,5 C 22,5 C 3,6 UV-I 1,9 C 50 % 49 % 54 % 1021,1 hPa 0,0 l/m 5,5 km/h (1 Bft) 0 min 7,0 km/h (2 Bft)
30.07.2009 15:16 24,5 C 22,6 C 6,1 UV-I 2,6 C 50 % 48 % 74 % 1020,9 hPa 0,0 l/m 6,3 km/h (2 Bft) 0 min 13,7 km/h (3 Bft)
30.07.2009 15:18 24,5 C 22,7 C 6,1 UV-I 3,0 C 49 % 48 % 86 % 1020,9 hPa 0,0 l/m 6,5 km/h (2 Bft) 2 min 13,7 km/h (3 Bft)
30.07.2009 15:20 24,6 C 22,9 C 6,1 UV-I 3,1 C 49 % 48 % 89 % 1020,9 hPa 0,0 l/m 5,8 km/h (2 Bft) 2 min 8,9 km/h (2 Bft)
30.07.2009 15:22 24,6 C 23,1 C 6,4 UV-I 3,5 C 49 % 48 % 100 % 1020,9 hPa 0,0 l/m 6,0 km/h (2 Bft) 2 min 6,3 km/h (2 Bft)
30.07.2009 15:24 24,6 C 23,2 C 6,4 UV-I 3,9 C 49 % 46 % 100 % 1020,9 hPa 0,0 l/m 7,0 km/h (2 Bft) 2 min 14,9 km/h (3 Bft)
30.07.2009 15:26 24,6 C 23,3 C 6,2 UV-I 4,0 C 49 % 47 % 100 % 1020,9 hPa 0,0 l/m 7,2 km/h (2 Bft) 2 min 16,1 km/h (3 Bft)
30.07.2009 15:28 24,6 C 23,3 C 6,2 UV-I 4,2 C 49 % 47 % 100 % 1020,9 hPa 0,0 l/m 7,5 km/h (2 Bft) 2 min 16,1 km/h (3 Bft)
30.07.2009 15:30 24,6 C 23,4 C 6,2 UV-I 4,2 C 49 % 47 % 100 % 1020,9 hPa 0,0 l/m 7,9 km/h (2 Bft) 2 min 14,7 km/h (3 Bft)
30.07.2009 15:32 24,7 C 23,5 C 5,7 UV-I 4,2 C 49 % 47 % 100 % 1020,9 hPa 0,0 l/m 7,9 km/h (2 Bft) 2 min 13,7 km/h (3 Bft)
30.07.2009 15:34 24,7 C 23,4 C 5,7 UV-I 3,9 C 49 % 46 % 100 % 1020,9 hPa 0,0 l/m 7,5 km/h (2 Bft) 2 min 8,9 km/h (2 Bft)
30.07.2009 15:36 24,8 C 23,5 C 3,3 UV-I 3,2 C 49 % 46 % 91 % 1021,3 hPa 0,0 l/m 6,7 km/h (2 Bft) 2 min 17,3 km/h (3 Bft)
30.07.2009 15:38 24,8 C 23,5 C 3,3 UV-I 2,7 C 49 % 46 % 77 % 1021,3 hPa 0,0 l/m 6,5 km/h (2 Bft) 0 min 17,3 km/h (3 Bft)
30.07.2009 15:40 24,8 C 23,3 C 3,3 UV-I 2,7 C 49 % 45 % 77 % 1021,3 hPa 0,0 l/m 6,3 km/h (2 Bft) 0 min 10,8 km/h (2 Bft)
30.07.2009 15:42 24,8 C 23,2 C 4,0 UV-I 2,5 C 49 % 46 % 71 % 1021,3 hPa 0,0 l/m 5,8 km/h (2 Bft) 0 min 10,8 km/h (2 Bft)
30.07.2009 15:44 24,8 C 23,3 C 4,0 UV-I 2,2 C 49 % 46 % 63 % 1021,3 hPa 0,0 l/m 5,3 km/h (1 Bft) 0 min 6,7 km/h (2 Bft)
30.07.2009 15:46 24,9 C 23,3 C 5,2 UV-I 2,6 C 49 % 45 % 74 % 1021,3 hPa 0,0 l/m 6,7 km/h (2 Bft) 0 min 19,5 km/h (3 Bft)
30.07.2009 15:48 24,9 C 23,4 C 5,2 UV-I 2,4 C 49 % 45 % 69 % 1021,3 hPa 0,0 l/m 6,5 km/h (2 Bft) 0 min 19,5 km/h (3 Bft)
30.07.2009 15:50 24,9 C 23,5 C 5,2 UV-I 2,5 C 48 % 45 % 71 % 1021,3 hPa 0,0 l/m 5,8 km/h (2 Bft) 0 min 8,7 km/h (2 Bft)
30.07.2009 15:52 25,0 C 23,5 C 5,2 UV-I 2,3 C 48 % 44 % 66 % 1021,3 hPa 0,0 l/m 6,3 km/h (2 Bft) 0 min 11,3 km/h (2 Bft)
30.07.2009 15:54 25,0 C 23,3 C 5,2 UV-I 2,1 C 48 % 43 % 60 % 1021,3 hPa 0,0 l/m 7,5 km/h (2 Bft) 0 min 12,8 km/h (3 Bft)
30.07.2009 15:56 25,0 C 23,3 C 2,2 UV-I 1,5 C 48 % 44 % 43 % 1021,5 hPa 0,0 l/m 7,5 km/h (2 Bft) 0 min 12,8 km/h (3 Bft)
30.07.2009 15:58 25,0 C 23,2 C 2,2 UV-I 1,1 C 48 % 44 % 31 % 1021,5 hPa 0,0 l/m 7,2 km/h (2 Bft) 0 min 7,0 km/h (2 Bft)
30.07.2009 16:00 25,0 C 23,1 C 2,2 UV-I 0,6 C 48 % 44 % 17 % 1021,5 hPa 0,0 l/m 8,2 km/h (2 Bft) 0 min 7,7 km/h (2 Bft)
30.07.2009 16:02 25,0 C 22,9 C 1,2 UV-I 0,3 C 48 % 44 % 9 % 1021,5 hPa 0,0 l/m 8,4 km/h (2 Bft) 0 min 10,6 km/h (2 Bft)
30.07.2009 16:04 25,1 C 22,8 C 1,2 UV-I 0,2 C 48 % 44 % 6 % 1021,5 hPa 0,0 l/m 8,2 km/h (2 Bft) 0 min 10,6 km/h (2 Bft)
30.07.2009 16:06 25,1 C 22,9 C 1,2 UV-I 0,0 C 48 % 45 % 0 % 1021,5 hPa 0,0 l/m 7,0 km/h (2 Bft) 0 min 9,9 km/h (2 Bft)
30.07.2009 16:08 25,1 C 22,8 C 1,2 UV-I 0,0 C 48 % 45 % 0 % 1021,5 hPa 0,0 l/m 7,2 km/h (2 Bft) 0 min 14,7 km/h (3 Bft)
30.07.2009 16:10 25,1 C 22,6 C 1,2 UV-I 0,0 C 48 % 45 % 0 % 1021,5 hPa 0,0 l/m 6,7 km/h (2 Bft) 0 min 14,9 km/h (3 Bft)
30.07.2009 16:12 25,1 C 22,6 C 0,9 UV-I 0,0 C 48 % 45 % 0 % 1021,5 hPa 0,0 l/m 6,5 km/h (2 Bft) 0 min 14,9 km/h (3 Bft)
30.07.2009 16:14 25,1 C 22,5 C 0,9 UV-I 0,0 C 48 % 46 % 0 % 1021,5 hPa 0,0 l/m 5,8 km/h (2 Bft) 0 min 8,4 km/h (2 Bft)
30.07.2009 16:16 25,1 C 22,4 C 0,5 UV-I 0,0 C 47 % 46 % 0 % 1021,8 hPa 0,0 l/m 6,0 km/h (2 Bft) 0 min 8,4 km/h (2 Bft)
30.07.2009 16:18 25,0 C 22,5 C 0,5 UV-I 0,0 C 47 % 46 % 0 % 1021,8 hPa 0,0 l/m 5,8 km/h (2 Bft) 0 min 7,9 km/h (2 Bft)
30.07.2009 16:20 25,1 C 22,3 C 0,5 UV-I 0,0 C 48 % 46 % 0 % 1021,8 hPa 0,0 l/m 5,5 km/h (1 Bft) 0 min 9,6 km/h (2 Bft)
30.07.2009 16:22 25,1 C 22,3 C 0,6 UV-I 0,0 C 47 % 47 % 0 % 1021,8 hPa 0,0 l/m 4,6 km/h (1 Bft) 0 min 12,5 km/h (3 Bft)
30.07.2009 16:24 25,0 C 22,2 C 0,6 UV-I 0,0 C 47 % 48 % 0 % 1021,8 hPa 0,0 l/m 4,6 km/h (1 Bft) 0 min 12,5 km/h (3 Bft)
30.07.2009 16:26 25,0 C 22,3 C 3,4 UV-I 0,0 C 47 % 48 % 0 % 1021,8 hPa 0,0 l/m 5,1 km/h (1 Bft) 0 min 5,5 km/h (1 Bft)
30.07.2009 16:28 25,0 C 22,2 C 3,4 UV-I 0,0 C 47 % 49 % 0 % 1021,8 hPa 0,0 l/m 5,1 km/h (1 Bft) 0 min 5,3 km/h (1 Bft)
30.07.2009 16:30 25,0 C 22,2 C 3,4 UV-I 0,9 C 47 % 50 % 26 % 1021,8 hPa 0,0 l/m 5,1 km/h (1 Bft) 0 min 4,8 km/h (1 Bft)
30.07.2009 16:32 25,0 C 22,4 C 9,0 UV-I 1,5 C 47 % 50 % 43 % 1021,8 hPa 0,0 l/m 5,1 km/h (1 Bft) 0 min 6,7 km/h (2 Bft)
30.07.2009 16:34 25,0 C 22,5 C 9,0 UV-I 2,5 C 47 % 50 % 71 % 1021,8 hPa 0,0 l/m 6,3 km/h (2 Bft) 0 min 11,1 km/h (2 Bft)
30.07.2009 16:36 25,0 C 22,4 C 9,4 UV-I 3,0 C 47 % 49 % 86 % 1021,1 hPa 0,0 l/m 6,7 km/h (2 Bft) 2 min 14,0 km/h (3 Bft)
30.07.2009 16:38 25,0 C 22,4 C 9,4 UV-I 3,3 C 47 % 50 % 94 % 1021,1 hPa 0,0 l/m 7,0 km/h (2 Bft) 2 min 14,0 km/h (3 Bft)
30.07.2009 16:40 25,1 C 22,5 C 9,4 UV-I 3,5 C 48 % 51 % 100 % 1021,1 hPa 0,0 l/m 6,7 km/h (2 Bft) 2 min 8,7 km/h (2 Bft)
30.07.2009 16:42 25,0 C 22,6 C 9,5 UV-I 3,7 C 48 % 50 % 100 % 1021,1 hPa 0,0 l/m 7,0 km/h (2 Bft) 2 min 6,7 km/h (2 Bft)
30.07.2009 16:44 25,1 C 22,6 C 9,5 UV-I 4,0 C 48 % 51 % 100 % 1021,1 hPa 0,0 l/m 6,5 km/h (2 Bft) 2 min 6,7 km/h (2 Bft)
30.07.2009 16:46 25,1 C 22,7 C 9,6 UV-I 4,2 C 48 % 51 % 100 % 1021,1 hPa 0,0 l/m 5,5 km/h (1 Bft) 2 min 10,8 km/h (2 Bft)
30.07.2009 16:48 25,1 C 22,8 C 9,6 UV-I 4,3 C 48 % 51 % 100 % 1021,1 hPa 0,0 l/m 4,8 km/h (1 Bft) 2 min 10,8 km/h (2 Bft)
30.07.2009 16:50 25,1 C 22,8 C 9,6 UV-I 4,4 C 48 % 51 % 100 % 1021,1 hPa 0,0 l/m 4,8 km/h (1 Bft) 2 min 3,8 km/h (1 Bft)
30.07.2009 16:52 25,1 C 22,8 C 5,4 UV-I 3,9 C 48 % 50 % 100 % 1021,1 hPa 0,0 l/m 4,8 km/h (1 Bft) 2 min 4,3 km/h (1 Bft)
30.07.2009 16:54 25,2 C 22,8 C 5,4 UV-I 3,4 C 48 % 49 % 97 % 1021,1 hPa 0,0 l/m 5,1 km/h (1 Bft) 2 min 10,1 km/h (2 Bft)
30.07.2009 16:56 25,2 C 22,8 C 2,1 UV-I 2,6 C 48 % 49 % 74 % 1021,2 hPa 0,0 l/m 4,3 km/h (1 Bft) 0 min 10,1 km/h (2 Bft)
30.07.2009 16:58 25,2 C 22,7 C 2,1 UV-I 2,1 C 48 % 50 % 60 % 1021,2 hPa 0,0 l/m 4,1 km/h (1 Bft) 0 min 6,3 km/h (2 Bft)
30.07.2009 17:00 25,2 C 22,6 C 2,1 UV-I 1,7 C 48 % 50 % 49 % 1021,2 hPa 0,0 l/m 4,1 km/h (1 Bft) 0 min 9,1 km/h (2 Bft)
30.07.2009 17:02 25,2 C 22,5 C 1,3 UV-I 1,3 C 48 % 50 % 37 % 1021,2 hPa 0,0 l/m 4,6 km/h (1 Bft) 0 min 9,1 km/h (2 Bft)
30.07.2009 17:04 25,2 C 22,4 C 1,3 UV-I 1,1 C 48 % 50 % 31 % 1021,2 hPa 0,0 l/m 4,6 km/h (1 Bft) 0 min 6,3 km/h (2 Bft)
30.07.2009 17:06 25,2 C 22,5 C 2,0 UV-I 0,9 C 48 % 51 % 26 % 1021,2 hPa 0,0 l/m 3,8 km/h (1 Bft) 0 min 6,0 km/h (2 Bft)
30.07.2009 17:08 25,2 C 22,4 C 2,0 UV-I 1,3 C 48 % 51 % 37 % 1021,2 hPa 0,0 l/m 4,3 km/h (1 Bft) 0 min 6,0 km/h (2 Bft)
30.07.2009 17:10 25,2 C 22,5 C 2,0 UV-I 1,4 C 48 % 51 % 40 % 1021,2 hPa 0,0 l/m 4,1 km/h (1 Bft) 0 min 3,8 km/h (1 Bft)
30.07.2009 17:12 25,3 C 22,5 C 2,9 UV-I 1,5 C 48 % 51 % 43 % 1021,2 hPa 0,0 l/m 3,8 km/h (1 Bft) 0 min 7,2 km/h (2 Bft)
30.07.2009 17:14 25,3 C 22,4 C 2,9 UV-I 1,4 C 48 % 50 % 40 % 1021,2 hPa 0,0 l/m 3,8 km/h (1 Bft) 0 min 7,2 km/h (2 Bft)
30.07.2009 17:16 25,3 C 22,4 C 2,6 UV-I 1,1 C 48 % 51 % 31 % 1021,6 hPa 0,0 l/m 4,6 km/h (1 Bft) 0 min 7,2 km/h (2 Bft)
30.07.2009 17:18 25,2 C 22,4 C 2,6 UV-I 1,0 C 48 % 51 % 29 % 1021,6 hPa 0,0 l/m 4,3 km/h (1 Bft) 0 min 7,2 km/h (2 Bft)
30.07.2009 17:20 25,3 C 22,5 C 2,6 UV-I 0,7 C 48 % 51 % 20 % 1021,6 hPa 0,0 l/m 4,6 km/h (1 Bft) 0 min 5,5 km/h (1 Bft)
30.07.2009 17:22 25,2 C 22,3 C 2,6 UV-I 0,7 C 48 % 51 % 20 % 1021,6 hPa 0,0 l/m 4,3 km/h (1 Bft) 0 min 5,5 km/h (1 Bft)
30.07.2009 17:24 25,2 C 22,4 C 2,6 UV-I 0,5 C 47 % 51 % 14 % 1021,6 hPa 0,0 l/m 3,8 km/h (1 Bft) 0 min 5,5 km/h (1 Bft)
30.07.2009 17:26 25,2 C 22,4 C 2,7 UV-I 0,6 C 48 % 52 % 17 % 1021,6 hPa 0,0 l/m 3,4 km/h (1 Bft) 0 min 3,1 km/h (1 Bft)
30.07.2009 17:28 25,2 C 22,4 C 2,7 UV-I 1,0 C 48 % 51 % 29 % 1021,6 hPa 0,0 l/m 2,9 km/h (1 Bft) 0 min 6,5 km/h (2 Bft)
30.07.2009 17:30 25,2 C 22,4 C 2,7 UV-I 1,5 C 48 % 51 % 43 % 1021,6 hPa 0,0 l/m 3,4 km/h (1 Bft) 0 min 13,5 km/h (3 Bft)
30.07.2009 17:32 25,4 C 22,4 C 2,8 UV-I 1,7 C 48 % 50 % 49 % 1021,6 hPa 0,0 l/m 4,1 km/h (1 Bft) 0 min 17,6 km/h (3 Bft)
30.07.2009 17:34 25,2 C 22,4 C 2,8 UV-I 1,5 C 48 % 50 % 43 % 1021,6 hPa 0,0 l/m 4,6 km/h (1 Bft) 0 min 17,6 km/h (3 Bft)
30.07.2009 17:36 25,2 C 22,3 C 2,2 UV-I 1,4 C 48 % 50 % 40 % 1021,6 hPa 0,0 l/m 6,0 km/h (2 Bft) 0 min 10,1 km/h (2 Bft)
30.07.2009 17:38 25,4 C 22,2 C 2,2 UV-I 1,3 C 48 % 49 % 37 % 1021,6 hPa 0,0 l/m 7,0 km/h (2 Bft) 0 min 6,7 km/h (2 Bft)
30.07.2009 17:40 25,4 C 22,3 C 2,2 UV-I 1,0 C 48 % 50 % 29 % 1021,6 hPa 0,0 l/m 6,7 km/h (2 Bft) 0 min 6,7 km/h (2 Bft)
30.07.2009 17:42 25,2 C 22,3 C 2,2 UV-I 0,9 C 47 % 50 % 26 % 1021,6 hPa 0,0 l/m 6,7 km/h (2 Bft) 0 min 6,0 km/h (2 Bft)
30.07.2009 17:44 25,4 C 22,3 C 2,2 UV-I 1,1 C 47 % 51 % 31 % 1021,6 hPa 0,0 l/m 6,5 km/h (2 Bft) 0 min 8,2 km/h (2 Bft)
30.07.2009 17:46 25,4 C 22,3 C 2,5 UV-I 1,6 C 47 % 50 % 46 % 1021,6 hPa 0,0 l/m 6,3 km/h (2 Bft) 0 min 8,2 km/h (2 Bft)
30.07.2009 17:48 25,4 C 22,3 C 2,5 UV-I 2,1 C 47 % 51 % 60 % 1021,6 hPa 0,0 l/m 6,7 km/h (2 Bft) 0 min 14,7 km/h (3 Bft)
30.07.2009 17:50 25,4 C 22,3 C 2,5 UV-I 2,4 C 47 % 51 % 69 % 1021,6 hPa 0,0 l/m 7,0 km/h (2 Bft) 0 min 14,7 km/h (3 Bft)
30.07.2009 17:52 25,4 C 22,0 C 2,7 UV-I 2,6 C 47 % 52 % 74 % 1021,6 hPa 0,0 l/m 7,7 km/h (2 Bft) 0 min 7,9 km/h (2 Bft)
30.07.2009 17:54 25,4 C 22,0 C 2,7 UV-I 2,4 C 47 % 53 % 69 % 1021,6 hPa 0,0 l/m 7,2 km/h (2 Bft) 0 min 7,9 km/h (2 Bft)
30.07.2009 17:56 25,4 C 22,0 C 2,5 UV-I 2,3 C 47 % 53 % 66 % 1021,8 hPa 0,0 l/m 6,7 km/h (2 Bft) 0 min 9,1 km/h (2 Bft)
30.07.2009 17:58 25,4 C 21,8 C 2,5 UV-I 2,3 C 47 % 53 % 66 % 1021,8 hPa 0,0 l/m 6,7 km/h (2 Bft) 0 min 17,1 km/h (3 Bft)
30.07.2009 18:00 25,4 C 21,9 C 2,5 UV-I 2,0 C 47 % 54 % 57 % 1021,8 hPa 0,0 l/m 6,0 km/h (2 Bft) 0 min 17,1 km/h (3 Bft)
30.07.2009 18:02 25,4 C 21,7 C 2,4 UV-I 2,1 C 47 % 54 % 60 % 1021,8 hPa 0,0 l/m 5,5 km/h (1 Bft) 0 min 13,5 km/h (3 Bft)
30.07.2009 18:04 25,4 C 21,7 C 2,4 UV-I 2,0 C 48 % 54 % 57 % 1021,8 hPa 0,0 l/m 5,8 km/h (2 Bft) 0 min 5,5 km/h (1 Bft)
30.07.2009 18:06 25,4 C 21,6 C 1,9 UV-I 1,9 C 47 % 54 % 54 % 1021,8 hPa 0,0 l/m 6,3 km/h (2 Bft) 0 min 8,7 km/h (2 Bft)
30.07.2009 18:08 25,4 C 21,5 C 1,9 UV-I 1,4 C 47 % 54 % 40 % 1021,8 hPa 0,0 l/m 6,3 km/h (2 Bft) 0 min 8,7 km/h (2 Bft)
30.07.2009 18:10 25,4 C 21,5 C 1,9 UV-I 1,2 C 48 % 54 % 34 % 1021,8 hPa 0,0 l/m 5,5 km/h (1 Bft) 0 min 4,6 km/h (1 Bft)
30.07.2009 18:12 25,4 C 21,4 C 1,1 UV-I 0,7 C 48 % 55 % 20 % 1021,8 hPa 0,0 l/m 5,3 km/h (1 Bft) 0 min 4,6 km/h (1 Bft)
30.07.2009 18:14 25,4 C 21,3 C 1,1 UV-I 0,5 C 48 % 55 % 14 % 1021,8 hPa 0,0 l/m 4,6 km/h (1 Bft) 0 min 4,6 km/h (1 Bft)
30.07.2009 18:16 25,4 C 21,3 C 1,2 UV-I 0,4 C 48 % 55 % 11 % 1022,3 hPa 0,0 l/m 4,6 km/h (1 Bft) 0 min 13,2 km/h (3 Bft)
30.07.2009 18:18 25,4 C 21,2 C 1,2 UV-I 0,6 C 48 % 55 % 17 % 1022,3 hPa 0,0 l/m 3,8 km/h (1 Bft) 0 min 13,2 km/h (3 Bft)
30.07.2009 18:20 25,4 C 21,2 C 1,2 UV-I 1,1 C 48 % 56 % 31 % 1022,3 hPa 0,0 l/m 3,4 km/h (1 Bft) 0 min 4,6 km/h (1 Bft)
30.07.2009 18:22 25,4 C 21,3 C 2,5 UV-I 1,7 C 48 % 56 % 49 % 1022,3 hPa 0,0 l/m 3,4 km/h (1 Bft) 0 min 4,3 km/h (1 Bft)
30.07.2009 18:26 25,4 C 21,5 C 2,2 UV-I 2,9 C 48 % 56 % 83 % 1022,3 hPa 0,0 l/m 2,9 km/h (1 Bft) 2 min 14,2 km/h (3 Bft)
30.07.2009 18:28 25,4 C 21,4 C 2,2 UV-I 2,8 C 48 % 56 % 80 % 1022,3 hPa 0,0 l/m 2,4 km/h (1 Bft) 0 min 3,8 km/h (1 Bft)
30.07.2009 18:30 25,4 C 21,5 C 2,2 UV-I 2,3 C 48 % 55 % 66 % 1022,3 hPa 0,0 l/m 2,6 km/h (1 Bft) 0 min 8,9 km/h (2 Bft)
30.07.2009 18:32 25,2 C 21,5 C 1,8 UV-I 2,0 C 48 % 55 % 57 % 1022,3 hPa 0,0 l/m 3,4 km/h (1 Bft) 0 min 8,9 km/h (2 Bft)
30.07.2009 18:34 25,2 C 21,4 C 1,8 UV-I 1,7 C 48 % 55 % 49 % 1022,3 hPa 0,0 l/m 3,6 km/h (1 Bft) 0 min 7,7 km/h (2 Bft)
30.07.2009 18:36 25,2 C 21,5 C 1,5 UV-I 1,4 C 48 % 54 % 40 % 1021,9 hPa 0,0 l/m 3,4 km/h (1 Bft) 0 min 7,7 km/h (2 Bft)
30.07.2009 18:38 25,2 C 21,3 C 1,5 UV-I 1,4 C 48 % 54 % 40 % 1021,9 hPa 0,0 l/m 3,4 km/h (1 Bft) 0 min 6,3 km/h (2 Bft)
30.07.2009 18:40 25,3 C 21,5 C 1,5 UV-I 1,0 C 48 % 54 % 29 % 1021,9 hPa 0,0 l/m 3,1 km/h (1 Bft) 0 min 5,1 km/h (1 Bft)
30.07.2009 18:42 25,3 C 21,5 C 1,5 UV-I 1,0 C 47 % 54 % 29 % 1021,9 hPa 0,0 l/m 2,6 km/h (1 Bft) 0 min 5,1 km/h (1 Bft)
30.07.2009 18:44 25,2 C 21,3 C 1,5 UV-I 1,1 C 47 % 54 % 31 % 1021,9 hPa 0,0 l/m 2,9 km/h (1 Bft) 0 min 8,2 km/h (2 Bft)
30.07.2009 18:46 25,2 C 21,4 C 1,5 UV-I 0,8 C 47 % 54 % 23 % 1021,9 hPa 0,0 l/m 2,9 km/h (1 Bft) 0 min 8,2 km/h (2 Bft)
30.07.2009 18:48 25,2 C 21,4 C 1,5 UV-I 0,5 C 47 % 54 % 14 % 1021,9 hPa 0,0 l/m 2,6 km/h (1 Bft) 0 min 2,9 km/h (1 Bft)
30.07.2009 18:50 25,2 C 21,3 C 1,5 UV-I 0,5 C 47 % 54 % 14 % 1021,9 hPa 0,0 l/m 2,9 km/h (1 Bft) 0 min 5,1 km/h (1 Bft)
30.07.2009 18:52 25,2 C 21,2 C 1,2 UV-I 0,4 C 47 % 54 % 11 % 1021,9 hPa 0,0 l/m 2,2 km/h (1 Bft) 0 min 5,1 km/h (1 Bft)
30.07.2009 18:54 25,2 C 21,2 C 1,2 UV-I 0,2 C 47 % 53 % 6 % 1021,9 hPa 0,0 l/m 2,4 km/h (1 Bft) 0 min 5,8 km/h (2 Bft)
30.07.2009 18:56 25,2 C 21,1 C 0,7 UV-I 0,0 C 47 % 53 % 0 % 1022,2 hPa 0,0 l/m 2,4 km/h (1 Bft) 0 min 6,7 km/h (2 Bft)
30.07.2009 18:58 25,2 C 21,1 C 0,7 UV-I 0,0 C 47 % 53 % 0 % 1022,2 hPa 0,0 l/m 2,4 km/h (1 Bft) 0 min 8,4 km/h (2 Bft)
30.07.2009 19:00 25,1 C 21,1 C 0,7 UV-I 0,0 C 46 % 53 % 0 % 1022,2 hPa 0,0 l/m 3,1 km/h (1 Bft) 0 min 8,4 km/h (2 Bft)
30.07.2009 19:02 25,1 C 21,1 C 0,6 UV-I 0,0 C 47 % 53 % 0 % 1022,2 hPa 0,0 l/m 3,4 km/h (1 Bft) 0 min 7,0 km/h (2 Bft)
30.07.2009 19:04 25,1 C 21,1 C 0,6 UV-I 0,0 C 46 % 53 % 0 % 1022,2 hPa 0,0 l/m 3,6 km/h (1 Bft) 0 min 6,0 km/h (2 Bft)
30.07.2009 19:06 25,0 C 21,0 C 0,9 UV-I 0,0 C 46 % 53 % 0 % 1022,2 hPa 0,0 l/m 3,6 km/h (1 Bft) 0 min 6,0 km/h (2 Bft)
30.07.2009 19:08 25,0 C 21,1 C 0,9 UV-I 0,0 C 46 % 53 % 0 % 1022,2 hPa 0,0 l/m 3,6 km/h (1 Bft) 0 min 3,4 km/h (1 Bft)
30.07.2009 19:10 25,0 C 21,1 C 0,9 UV-I 0,0 C 46 % 53 % 0 % 1022,2 hPa 0,0 l/m 3,6 km/h (1 Bft) 0 min 7,9 km/h (2 Bft)
30.07.2009 19:12 25,0 C 21,0 C 1,0 UV-I 0,0 C 46 % 53 % 0 % 1022,2 hPa 0,0 l/m 3,6 km/h (1 Bft) 0 min 7,9 km/h (2 Bft)
30.07.2009 19:14 25,0 C 21,1 C 1,0 UV-I 0,0 C 46 % 53 % 0 % 1022,2 hPa 0,0 l/m 3,8 km/h (1 Bft) 0 min 5,8 km/h (2 Bft)
30.07.2009 19:16 24,9 C 21,1 C 1,1 UV-I 0,0 C 46 % 53 % 0 % 1022,3 hPa 0,0 l/m 3,8 km/h (1 Bft) 0 min 5,8 km/h (2 Bft)
30.07.2009 19:18 24,9 C 21,0 C 1,1 UV-I 0,0 C 46 % 53 % 0 % 1022,3 hPa 0,0 l/m 3,8 km/h (1 Bft) 0 min 9,4 km/h (2 Bft)
30.07.2009 19:20 24,9 C 21,0 C 1,1 UV-I 0,0 C 46 % 52 % 0 % 1022,3 hPa 0,0 l/m 3,4 km/h (1 Bft) 0 min 9,4 km/h (2 Bft)
30.07.2009 19:22 24,9 C 21,1 C 1,1 UV-I 0,0 C 46 % 49 % 0 % 1022,3 hPa 0,0 l/m 4,3 km/h (1 Bft) 0 min 15,9 km/h (3 Bft)
30.07.2009 19:24 24,8 C 21,0 C 1,1 UV-I 0,0 C 46 % 47 % 0 % 1022,3 hPa 0,0 l/m 5,3 km/h (1 Bft) 0 min 15,9 km/h (3 Bft)
30.07.2009 19:26 24,8 C 21,0 C 0,8 UV-I 0,0 C 46 % 46 % 0 % 1022,3 hPa 0,0 l/m 5,8 km/h (2 Bft) 0 min 11,5 km/h (2 Bft)
30.07.2009 19:28 24,8 C 21,1 C 0,8 UV-I 0,0 C 46 % 45 % 0 % 1022,3 hPa 0,0 l/m 6,3 km/h (2 Bft) 0 min 12,8 km/h (3 Bft)
30.07.2009 19:30 24,8 C 21,1 C 0,8 UV-I 0,0 C 46 % 45 % 0 % 1022,3 hPa 0,0 l/m 6,7 km/h (2 Bft) 0 min 12,8 km/h (3 Bft)
30.07.2009 19:32 24,8 C 21,1 C 0,8 UV-I 0,0 C 45 % 44 % 0 % 1022,3 hPa 0,0 l/m 6,7 km/h (2 Bft) 0 min 8,2 km/h (2 Bft)
30.07.2009 19:34 24,8 C 21,1 C 0,8 UV-I 0,0 C 45 % 44 % 0 % 1022,3 hPa 0,0 l/m 6,3 km/h (2 Bft) 0 min 9,9 km/h (2 Bft)
30.07.2009 19:36 24,8 C 21,1 C 1,0 UV-I 0,0 C 45 % 43 % 0 % 1022,2 hPa 0,0 l/m 6,5 km/h (2 Bft) 0 min 17,1 km/h (3 Bft)
30.07.2009 19:38 24,7 C 21,1 C 1,0 UV-I 0,0 C 45 % 43 % 0 % 1022,2 hPa 0,0 l/m 6,3 km/h (2 Bft) 0 min 17,1 km/h (3 Bft)
30.07.2009 19:40 24,7 C 21,1 C 1,0 UV-I 0,0 C 44 % 43 % 0 % 1022,2 hPa 0,0 l/m 6,3 km/h (2 Bft) 0 min 10,8 km/h (2 Bft)
30.07.2009 19:42 24,6 C 21,0 C 0,8 UV-I 0,0 C 44 % 43 % 0 % 1022,2 hPa 0,0 l/m 6,5 km/h (2 Bft) 0 min 8,7 km/h (2 Bft)
30.07.2009 19:44 24,6 C 21,0 C 0,8 UV-I 0,0 C 44 % 43 % 0 % 1022,2 hPa 0,0 l/m 6,3 km/h (2 Bft) 0 min 4,8 km/h (1 Bft)
30.07.2009 19:46 24,6 C 21,0 C 0,8 UV-I 0,0 C 44 % 44 % 0 % 1022,2 hPa 0,0 l/m 6,0 km/h (2 Bft) 0 min 9,6 km/h (2 Bft)
30.07.2009 19:48 24,6 C 21,1 C 0,8 UV-I 0,0 C 44 % 44 % 0 % 1022,2 hPa 0,0 l/m 5,3 km/h (1 Bft) 0 min 9,6 km/h (2 Bft)
30.07.2009 19:50 24,6 C 21,1 C 0,8 UV-I 0,0 C 44 % 43 % 0 % 1022,2 hPa 0,0 l/m 5,5 km/h (1 Bft) 0 min 7,5 km/h (2 Bft)
30.07.2009 19:52 24,5 C 21,0 C 0,6 UV-I 0,0 C 44 % 43 % 0 % 1022,2 hPa 0,0 l/m 5,8 km/h (2 Bft) 0 min 7,2 km/h (2 Bft)
30.07.2009 19:54 24,5 C 20,9 C 0,6 UV-I 0,0 C 44 % 44 % 0 % 1022,2 hPa 0,0 l/m 5,3 km/h (1 Bft) 0 min 7,5 km/h (2 Bft)
30.07.2009 19:56 24,5 C 20,8 C 0,5 UV-I 0,0 C 44 % 44 % 0 % 1022,4 hPa 0,0 l/m 5,5 km/h (1 Bft) 0 min 7,5 km/h (2 Bft)
30.07.2009 20:00 24,4 C 20,8 C 0,5 UV-I 0,0 C 43 % 44 % 0 % 1022,4 hPa 0,0 l/m 5,1 km/h (1 Bft) 0 min 6,7 km/h (2 Bft)
30.07.2009 20:02 24,4 C 20,8 C 0,3 UV-I 0,0 C 43 % 44 % 0 % 1022,4 hPa 0,0 l/m 4,3 km/h (1 Bft) 0 min 4,6 km/h (1 Bft)
30.07.2009 20:04 24,4 C 20,8 C 0,3 UV-I 0,0 C 43 % 44 % 0 % 1022,4 hPa 0,0 l/m 4,6 km/h (1 Bft) 0 min 8,9 km/h (2 Bft)
30.07.2009 20:06 24,4 C 20,7 C 0,3 UV-I 0,0 C 43 % 44 % 0 % 1022,4 hPa 0,0 l/m 4,6 km/h (1 Bft) 0 min 8,9 km/h (2 Bft)
30.07.2009 20:08 24,4 C 20,6 C 0,3 UV-I 0,0 C 43 % 44 % 0 % 1022,4 hPa 0,0 l/m 5,1 km/h (1 Bft) 0 min 9,6 km/h (2 Bft)
30.07.2009 20:10 24,4 C 20,6 C 0,3 UV-I 0,0 C 43 % 44 % 0 % 1022,4 hPa 0,0 l/m 5,1 km/h (1 Bft) 0 min 9,6 km/h (2 Bft)
30.07.2009 20:12 24,2 C 20,7 C 0,1 UV-I 0,0 C 43 % 45 % 0 % 1022,4 hPa 0,0 l/m 5,3 km/h (1 Bft) 0 min 7,2 km/h (2 Bft)
30.07.2009 20:14 24,3 C 20,7 C 0,1 UV-I 0,0 C 43 % 45 % 0 % 1022,4 hPa 0,0 l/m 4,8 km/h (1 Bft) 0 min 7,2 km/h (2 Bft)
30.07.2009 20:16 24,3 C 20,7 C 0,3 UV-I 0,0 C 43 % 44 % 0 % 1022,3 hPa 0,0 l/m 5,5 km/h (1 Bft) 0 min 9,6 km/h (2 Bft)
30.07.2009 20:18 24,3 C 20,5 C 0,3 UV-I 0,0 C 43 % 44 % 0 % 1022,3 hPa 0,0 l/m 5,8 km/h (2 Bft) 0 min 13,2 km/h (3 Bft)
30.07.2009 20:20 24,3 C 20,4 C 0,3 UV-I 0,0 C 43 % 44 % 0 % 1022,3 hPa 0,0 l/m 6,0 km/h (2 Bft) 0 min 13,2 km/h (3 Bft)
30.07.2009 20:22 24,2 C 20,4 C 0,2 UV-I 0,0 C 43 % 45 % 0 % 1022,3 hPa 0,0 l/m 6,3 km/h (2 Bft) 0 min 13,2 km/h (3 Bft)
30.07.2009 20:24 24,2 C 20,4 C 0,2 UV-I 0,0 C 43 % 45 % 0 % 1022,3 hPa 0,0 l/m 6,7 km/h (2 Bft) 0 min 10,3 km/h (2 Bft)
30.07.2009 20:26 24,2 C 20,4 C 0,2 UV-I 0,0 C 43 % 45 % 0 % 1022,3 hPa 0,0 l/m 5,5 km/h (1 Bft) 0 min 10,3 km/h (2 Bft)
30.07.2009 20:28 24,2 C 20,5 C 0,2 UV-I 0,0 C 43 % 45 % 0 % 1022,3 hPa 0,0 l/m 5,3 km/h (1 Bft) 0 min 7,9 km/h (2 Bft)
30.07.2009 20:30 24,2 C 20,4 C 0,2 UV-I 0,0 C 43 % 46 % 0 % 1022,3 hPa 0,0 l/m 4,1 km/h (1 Bft) 0 min 7,9 km/h (2 Bft)
30.07.2009 20:32 24,1 C 20,3 C 0,1 UV-I 0,0 C 43 % 46 % 0 % 1022,3 hPa 0,0 l/m 3,1 km/h (1 Bft) 0 min 2,6 km/h (1 Bft)
30.07.2009 20:34 24,1 C 20,2 C 0,1 UV-I 0,0 C 43 % 46 % 0 % 1022,3 hPa 0,0 l/m 2,9 km/h (1 Bft) 0 min 2,9 km/h (1 Bft)
30.07.2009 20:36 24,1 C 20,3 C 0,0 UV-I 0,0 C 43 % 46 % 0 % 1022,8 hPa 0,0 l/m 2,9 km/h (1 Bft) 0 min 4,1 km/h (1 Bft)
30.07.2009 20:38 24,1 C 20,2 C 0,0 UV-I 0,0 C 43 % 46 % 0 % 1022,8 hPa 0,0 l/m 3,4 km/h (1 Bft) 0 min 5,3 km/h (1 Bft)
30.07.2009 20:40 24,1 C 20,3 C 0,0 UV-I 0,0 C 43 % 45 % 0 % 1022,8 hPa 0,0 l/m 3,8 km/h (1 Bft) 0 min 14,4 km/h (3 Bft)
30.07.2009 20:42 24,1 C 20,3 C 0,1 UV-I 0,0 C 43 % 45 % 0 % 1022,8 hPa 0,0 l/m 4,8 km/h (1 Bft) 0 min 14,4 km/h (3 Bft)
30.07.2009 20:44 24,0 C 20,3 C 0,1 UV-I 0,0 C 43 % 45 % 0 % 1022,8 hPa 0,0 l/m 5,5 km/h (1 Bft) 0 min 14,2 km/h (3 Bft)
30.07.2009 20:46 24,0 C 20,1 C 0,0 UV-I 0,0 C 43 % 44 % 0 % 1022,8 hPa 0,0 l/m 6,0 km/h (2 Bft) 0 min 14,2 km/h (3 Bft)
30.07.2009 20:48 24,0 C 20,1 C 0,0 UV-I 0,0 C 43 % 44 % 0 % 1022,8 hPa 0,0 l/m 6,3 km/h (2 Bft) 0 min 12,0 km/h (2 Bft)
30.07.2009 20:50 24,0 C 20,0 C 0,0 UV-I 0,0 C 43 % 44 % 0 % 1022,8 hPa 0,0 l/m 6,5 km/h (2 Bft) 0 min 12,0 km/h (2 Bft)
30.07.2009 20:52 24,0 C 20,0 C 0,1 UV-I 0,0 C 43 % 44 % 0 % 1022,8 hPa 0,0 l/m 5,8 km/h (2 Bft) 0 min 6,7 km/h (2 Bft)
30.07.2009 20:54 23,9 C 20,0 C 0,1 UV-I 0,0 C 43 % 44 % 0 % 1022,8 hPa 0,0 l/m 5,5 km/h (1 Bft) 0 min 9,9 km/h (2 Bft)
30.07.2009 20:56 23,9 C 19,9 C 0,0 UV-I 0,0 C 43 % 44 % 0 % 1022,9 hPa 0,0 l/m 4,8 km/h (1 Bft) 0 min 9,9 km/h (2 Bft)
30.07.2009 20:58 23,9 C 19,8 C 0,0 UV-I 0,0 C 43 % 43 % 0 % 1022,9 hPa 0,0 l/m 4,6 km/h (1 Bft) 0 min 6,0 km/h (2 Bft)
30.07.2009 21:00 23,9 C 19,9 C 0,0 UV-I 0,0 C 43 % 43 % 0 % 1022,9 hPa 0,0 l/m 4,3 km/h (1 Bft) 0 min 6,3 km/h (2 Bft)
30.07.2009 21:02 23,9 C 19,7 C 0,0 UV-I 0,0 C 43 % 43 % 0 % 1022,9 hPa 0,0 l/m 4,1 km/h (1 Bft) 0 min 6,3 km/h (2 Bft)
30.07.2009 21:06 23,8 C 19,6 C 0,0 UV-I 0,0 C 42 % 44 % 0 % 1022,9 hPa 0,0 l/m 4,1 km/h (1 Bft) 0 min 9,1 km/h (2 Bft)
30.07.2009 21:10 23,8 C 19,6 C 0,0 UV-I 0,0 C 43 % 44 % 0 % 1022,9 hPa 0,0 l/m 3,1 km/h (1 Bft) 0 min 9,1 km/h (2 Bft)
30.07.2009 21:12 23,8 C 19,5 C 0,0 UV-I 0,0 C 42 % 44 % 0 % 1022,9 hPa 0,0 l/m 3,4 km/h (1 Bft) 0 min 5,8 km/h (2 Bft)
30.07.2009 21:14 23,8 C 19,4 C 0,0 UV-I 0,0 C 42 % 44 % 0 % 1022,9 hPa 0,0 l/m 3,1 km/h (1 Bft) 0 min 5,8 km/h (2 Bft)
30.07.2009 21:16 23,7 C 19,4 C 0,0 UV-I 0,0 C 42 % 45 % 0 % 1023,1 hPa 0,0 l/m 3,4 km/h (1 Bft) 0 min 3,8 km/h (1 Bft)
30.07.2009 21:18 23,7 C 19,4 C 0,0 UV-I 0,0 C 43 % 45 % 0 % 1023,1 hPa 0,0 l/m 3,6 km/h (1 Bft) 0 min 11,5 km/h (2 Bft)
30.07.2009 21:20 23,7 C 19,3 C 0,0 UV-I 0,0 C 42 % 45 % 0 % 1023,1 hPa 0,0 l/m 4,1 km/h (1 Bft) 0 min 11,5 km/h (2 Bft)
30.07.2009 21:22 23,7 C 19,2 C 0,0 UV-I 0,0 C 43 % 45 % 0 % 1023,1 hPa 0,0 l/m 3,8 km/h (1 Bft) 0 min 5,3 km/h (1 Bft)
30.07.2009 21:24 23,6 C 19,2 C 0,0 UV-I 0,0 C 42 % 45 % 0 % 1023,1 hPa 0,0 l/m 3,6 km/h (1 Bft) 0 min 5,3 km/h (1 Bft)
30.07.2009 21:26 23,6 C 19,2 C 0,0 UV-I 0,0 C 43 % 46 % 0 % 1023,1 hPa 0,0 l/m 3,4 km/h (1 Bft) 0 min 4,8 km/h (1 Bft)
30.07.2009 21:28 23,6 C 19,1 C 0,0 UV-I 0,0 C 43 % 46 % 0 % 1023,1 hPa 0,0 l/m 3,1 km/h (1 Bft) 0 min 5,5 km/h (1 Bft)
30.07.2009 21:30 23,6 C 19,1 C 0,0 UV-I 0,0 C 43 % 46 % 0 % 1023,1 hPa 0,0 l/m 2,4 km/h (1 Bft) 0 min 5,5 km/h (1 Bft)
30.07.2009 21:32 23,6 C 19,1 C 0,0 UV-I 0,0 C 43 % 46 % 0 % 1023,1 hPa 0,0 l/m 2,4 km/h (1 Bft) 0 min 2,9 km/h (1 Bft)
30.07.2009 21:34 23,6 C 19,1 C 0,0 UV-I 0,0 C 43 % 46 % 0 % 1023,1 hPa 0,0 l/m 2,6 km/h (1 Bft) 0 min 3,1 km/h (1 Bft)
30.07.2009 21:36 23,6 C 18,8 C 0,0 UV-I 0,0 C 43 % 47 % 0 % 1023,9 hPa 0,0 l/m 1,9 km/h (1 Bft) 0 min 3,1 km/h (1 Bft)
30.07.2009 21:38 23,6 C 18,8 C 0,0 UV-I 0,0 C 43 % 49 % 0 % 1023,9 hPa 0,0 l/m 1,9 km/h (1 Bft) 0 min 2,4 km/h (1 Bft)
30.07.2009 21:40 23,5 C 18,8 C 0,0 UV-I 0,0 C 43 % 50 % 0 % 1023,9 hPa 0,0 l/m 1,9 km/h (1 Bft) 0 min 3,1 km/h (1 Bft)
30.07.2009 21:42 23,5 C 18,7 C 0,0 UV-I 0,0 C 43 % 51 % 0 % 1023,9 hPa 0,0 l/m 1,7 km/h (1 Bft) 0 min 3,1 km/h (1 Bft)
30.07.2009 21:44 23,5 C 18,7 C 0,0 UV-I 0,0 C 43 % 52 % 0 % 1023,9 hPa 0,0 l/m 1,2 km/h (1 Bft) 0 min 0,0 km/h (0 Bft)
30.07.2009 21:46 23,5 C 18,5 C 0,0 UV-I 0,0 C 43 % 54 % 0 % 1023,9 hPa 0,0 l/m 1,7 km/h (1 Bft) 0 min 5,1 km/h (1 Bft)
30.07.2009 21:48 23,5 C 18,4 C 0,0 UV-I 0,0 C 44 % 54 % 0 % 1023,9 hPa 0,0 l/m 1,9 km/h (1 Bft) 0 min 5,1 km/h (1 Bft)
30.07.2009 21:50 23,5 C 18,3 C 0,0 UV-I 0,0 C 44 % 54 % 0 % 1023,9 hPa 0,0 l/m 1,4 km/h (1 Bft) 0 min 0,0 km/h (0 Bft)
30.07.2009 21:52 23,5 C 18,3 C 0,0 UV-I 0,0 C 44 % 56 % 0 % 1023,9 hPa 0,0 l/m 1,9 km/h (1 Bft) 0 min 7,5 km/h (2 Bft)
30.07.2009 21:54 23,4 C 18,1 C 0,0 UV-I 0,0 C 44 % 56 % 0 % 1023,9 hPa 0,0 l/m 1,9 km/h (1 Bft) 0 min 7,5 km/h (2 Bft)
30.07.2009 21:56 23,4 C 18,1 C 0,0 UV-I 0,0 C 44 % 57 % 0 % 1023,9 hPa 0,0 l/m 2,2 km/h (1 Bft) 0 min 7,9 km/h (2 Bft)
30.07.2009 21:58 23,4 C 18,1 C 0,0 UV-I 0,0 C 44 % 58 % 0 % 1023,9 hPa 0,0 l/m 2,6 km/h (1 Bft) 0 min 7,9 km/h (2 Bft)
30.07.2009 22:00 23,4 C 17,9 C 0,0 UV-I 0,0 C 44 % 58 % 0 % 1023,9 hPa 0,0 l/m 3,8 km/h (1 Bft) 0 min 6,3 km/h (2 Bft)
30.07.2009 22:02 23,4 C 17,9 C 0,0 UV-I 0,0 C 45 % 58 % 0 % 1023,9 hPa 0,0 l/m 3,8 km/h (1 Bft) 0 min 6,5 km/h (2 Bft)
30.07.2009 22:04 23,4 C 17,7 C 0,0 UV-I 0,0 C 45 % 59 % 0 % 1023,9 hPa 0,0 l/m 4,1 km/h (1 Bft) 0 min 6,5 km/h (2 Bft)
30.07.2009 22:06 23,2 C 17,7 C 0,0 UV-I 0,0 C 45 % 59 % 0 % 1023,9 hPa 0,0 l/m 4,6 km/h (1 Bft) 0 min 9,1 km/h (2 Bft)
30.07.2009 22:08 23,2 C 17,7 C 0,0 UV-I 0,0 C 45 % 60 % 0 % 1023,9 hPa 0,0 l/m 4,3 km/h (1 Bft) 0 min 9,1 km/h (2 Bft)
30.07.2009 22:10 23,2 C 17,5 C 0,0 UV-I 0,0 C 45 % 59 % 0 % 1023,9 hPa 0,0 l/m 3,6 km/h (1 Bft) 0 min 5,8 km/h (2 Bft)
30.07.2009 22:12 23,3 C 17,4 C 0,0 UV-I 0,0 C 45 % 60 % 0 % 1023,9 hPa 0,0 l/m 3,6 km/h (1 Bft) 0 min 3,1 km/h (1 Bft)
30.07.2009 22:14 23,2 C 17,4 C 0,0 UV-I 0,0 C 45 % 60 % 0 % 1023,9 hPa 0,0 l/m 3,1 km/h (1 Bft) 0 min 3,1 km/h (1 Bft)
30.07.2009 22:16 23,2 C 17,3 C 0,0 UV-I 0,0 C 45 % 60 % 0 % 1024,1 hPa 0,0 l/m 2,9 km/h (1 Bft) 0 min 0,0 km/h (0 Bft)
30.07.2009 22:18 23,2 C 17,3 C 0,0 UV-I 0,0 C 46 % 61 % 0 % 1024,1 hPa 0,0 l/m 2,9 km/h (1 Bft) 0 min 4,3 km/h (1 Bft)
30.07.2009 22:20 23,2 C 17,3 C 0,0 UV-I 0,0 C 46 % 61 % 0 % 1024,1 hPa 0,0 l/m 2,2 km/h (1 Bft) 0 min 4,3 km/h (1 Bft)
30.07.2009 22:22 23,2 C 17,1 C 0,0 UV-I 0,0 C 46 % 61 % 0 % 1024,1 hPa 0,0 l/m 1,4 km/h (1 Bft) 0 min 3,4 km/h (1 Bft)
30.07.2009 22:24 23,2 C 17,0 C 0,0 UV-I 0,0 C 46 % 62 % 0 % 1024,1 hPa 0,0 l/m 1,4 km/h (1 Bft) 0 min 3,6 km/h (1 Bft)
30.07.2009 22:26 23,2 C 17,1 C 0,0 UV-I 0,0 C 46 % 62 % 0 % 1024,1 hPa 0,0 l/m 1,0 km/h (0 Bft) 0 min 3,6 km/h (1 Bft)
30.07.2009 22:28 23,2 C 17,0 C 0,0 UV-I 0,0 C 46 % 62 % 0 % 1024,1 hPa 0,0 l/m 0,7 km/h (0 Bft) 0 min 0,0 km/h (0 Bft)
30.07.2009 22:30 23,2 C 16,9 C 0,0 UV-I 0,0 C 46 % 62 % 0 % 1024,1 hPa 0,0 l/m 0,5 km/h (0 Bft) 0 min 0,0 km/h (0 Bft)
30.07.2009 22:32 23,1 C 16,8 C 0,0 UV-I 0,0 C 46 % 62 % 0 % 1024,1 hPa 0,0 l/m 0,2 km/h (0 Bft) 0 min 0,0 km/h (0 Bft)
30.07.2009 22:36 23,1 C 16,7 C 0,0 UV-I 0,0 C 46 % 63 % 0 % 1024,5 hPa 0,0 l/m 0,7 km/h (0 Bft) 0 min 5,5 km/h (1 Bft)
30.07.2009 22:38 23,1 C 16,6 C 0,0 UV-I 0,0 C 46 % 63 % 0 % 1024,5 hPa 0,0 l/m 0,7 km/h (0 Bft) 0 min 0,0 km/h (0 Bft)
30.07.2009 22:42 23,0 C 16,5 C 0,0 UV-I 0,0 C 47 % 64 % 0 % 1024,5 hPa 0,0 l/m 1,0 km/h (0 Bft) 0 min 0,0 km/h (0 Bft)
30.07.2009 22:44 23,0 C 16,4 C 0,0 UV-I 0,0 C 47 % 64 % 0 % 1024,5 hPa 0,0 l/m 1,0 km/h (0 Bft) 0 min 0,0 km/h (0 Bft)
30.07.2009 22:46 23,0 C 16,4 C 0,0 UV-I 0,0 C 47 % 64 % 0 % 1024,5 hPa 0,0 l/m 0,7 km/h (0 Bft) 0 min 2,4 km/h (1 Bft)
30.07.2009 22:48 23,0 C 16,4 C 0,0 UV-I 0,0 C 47 % 64 % 0 % 1024,5 hPa 0,0 l/m 0,7 km/h (0 Bft) 0 min 2,4 km/h (1 Bft)
30.07.2009 22:50 23,0 C 16,3 C 0,0 UV-I 0,0 C 47 % 64 % 0 % 1024,5 hPa 0,0 l/m 0,7 km/h (0 Bft) 0 min 2,4 km/h (1 Bft)
30.07.2009 22:52 23,0 C 16,2 C 0,0 UV-I 0,0 C 47 % 64 % 0 % 1024,5 hPa 0,0 l/m 0,7 km/h (0 Bft) 0 min 0,0 km/h (0 Bft)
30.07.2009 22:54 23,0 C 16,2 C 0,0 UV-I 0,0 C 47 % 65 % 0 % 1024,5 hPa 0,0 l/m 0,5 km/h (0 Bft) 0 min 0,0 km/h (0 Bft)
30.07.2009 22:56 23,0 C 16,1 C 0,0 UV-I 0,0 C 47 % 65 % 0 % 1024,6 hPa 0,0 l/m 0,5 km/h (0 Bft) 0 min 0,0 km/h (0 Bft)
30.07.2009 22:58 23,0 C 16,1 C 0,0 UV-I 0,0 C 47 % 65 % 0 % 1024,6 hPa 0,0 l/m 0,0 km/h (0 Bft) 0 min 0,0 km/h (0 Bft)
30.07.2009 23:00 23,0 C 16,1 C 0,0 UV-I 0,0 C 47 % 65 % 0 % 1024,6 hPa 0,0 l/m 0,0 km/h (0 Bft) 0 min 0,0 km/h (0 Bft)
30.07.2009 23:02 23,0 C 16,0 C 0,0 UV-I 0,0 C 47 % 66 % 0 % 1024,6 hPa 0,0 l/m 0,0 km/h (0 Bft) 0 min 0,0 km/h (0 Bft)
30.07.2009 23:06 22,9 C 15,8 C 0,0 UV-I 0,0 C 47 % 66 % 0 % 1024,6 hPa 0,0 l/m 0,0 km/h (0 Bft) 0 min 0,0 km/h (0 Bft)
30.07.2009 23:08 22,9 C 15,9 C 0,0 UV-I 0,0 C 47 % 66 % 0 % 1024,6 hPa 0,0 l/m 0,0 km/h (0 Bft) 0 min 0,0 km/h (0 Bft)
30.07.2009 23:10 22,9 C 15,7 C 0,0 UV-I 0,0 C 47 % 66 % 0 % 1024,6 hPa 0,0 l/m 0,0 km/h (0 Bft) 0 min 0,0 km/h (0 Bft)
30.07.2009 23:14 22,8 C 15,6 C 0,0 UV-I 0,0 C 47 % 67 % 0 % 1024,6 hPa 0,0 l/m 0,0 km/h (0 Bft) 0 min 2,9 km/h (1 Bft)
30.07.2009 23:16 22,8 C 15,6 C 0,0 UV-I 0,0 C 47 % 67 % 0 % 1024,6 hPa 0,0 l/m 0,2 km/h (0 Bft) 0 min 2,9 km/h (1 Bft)
30.07.2009 23:18 22,8 C 15,5 C 0,0 UV-I 0,0 C 48 % 67 % 0 % 1024,6 hPa 0,0 l/m 0,2 km/h (0 Bft) 0 min 0,0 km/h (0 Bft)
30.07.2009 23:20 22,8 C 15,5 C 0,0 UV-I 0,0 C 48 % 67 % 0 % 1024,6 hPa 0,0 l/m 0,2 km/h (0 Bft) 0 min 0,0 km/h (0 Bft)
30.07.2009 23:22 22,8 C 15,5 C 0,0 UV-I 0,0 C 48 % 67 % 0 % 1024,6 hPa 0,0 l/m 1,4 km/h (1 Bft) 0 min 3,4 km/h (1 Bft)
30.07.2009 23:24 22,8 C 15,5 C 0,0 UV-I 0,0 C 47 % 68 % 0 % 1024,6 hPa 0,0 l/m 1,4 km/h (1 Bft) 0 min 0,0 km/h (0 Bft)
30.07.2009 23:26 22,8 C 15,4 C 0,0 UV-I 0,0 C 48 % 68 % 0 % 1024,6 hPa 0,0 l/m 1,4 km/h (1 Bft) 0 min 0,0 km/h (0 Bft)
30.07.2009 23:28 22,8 C 15,3 C 0,0 UV-I 0,0 C 48 % 68 % 0 % 1024,6 hPa 0,0 l/m 1,2 km/h (1 Bft) 0 min 0,0 km/h (0 Bft)
30.07.2009 23:30 22,8 C 15,3 C 0,0 UV-I 0,0 C 48 % 68 % 0 % 1024,6 hPa 0,0 l/m 1,2 km/h (1 Bft) 0 min 0,0 km/h (0 Bft)
30.07.2009 23:32 22,7 C 15,2 C 0,0 UV-I 0,0 C 48 % 68 % 0 % 1024,6 hPa 0,0 l/m 0,5 km/h (0 Bft) 0 min 0,0 km/h (0 Bft)
30.07.2009 23:34 22,7 C 15,3 C 0,0 UV-I 0,0 C 48 % 68 % 0 % 1024,6 hPa 0,0 l/m 0,0 km/h (0 Bft) 0 min 2,6 km/h (1 Bft)
30.07.2009 23:36 22,7 C 15,2 C 0,0 UV-I 0,0 C 48 % 68 % 0 % 1024,5 hPa 0,0 l/m 0,0 km/h (0 Bft) 0 min 2,6 km/h (1 Bft)
30.07.2009 23:38 22,7 C 15,1 C 0,0 UV-I 0,0 C 48 % 69 % 0 % 1024,5 hPa 0,0 l/m 0,0 km/h (0 Bft) 0 min 0,0 km/h (0 Bft)
30.07.2009 23:40 22,7 C 15,0 C 0,0 UV-I 0,0 C 48 % 69 % 0 % 1024,5 hPa 0,0 l/m 0,0 km/h (0 Bft) 0 min 0,0 km/h (0 Bft)
30.07.2009 23:42 22,6 C 15,1 C 0,0 UV-I 0,0 C 48 % 69 % 0 % 1024,5 hPa 0,0 l/m 0,0 km/h (0 Bft) 0 min 0,0 km/h (0 Bft)
30.07.2009 23:44 22,6 C 15,0 C 0,0 UV-I 0,0 C 48 % 69 % 0 % 1024,5 hPa 0,0 l/m 0,0 km/h (0 Bft) 0 min 0,0 km/h (0 Bft)
30.07.2009 23:48 22,6 C 14,8 C 0,0 UV-I 0,0 C 48 % 69 % 0 % 1024,5 hPa 0,0 l/m 0,0 km/h (0 Bft) 0 min 0,0 km/h (0 Bft)
30.07.2009 23:50 22,6 C 14,8 C 0,0 UV-I 0,0 C 48 % 69 % 0 % 1024,5 hPa 0,0 l/m 0,0 km/h (0 Bft) 0 min 0,0 km/h (0 Bft)
30.07.2009 23:52 22,6 C 14,8 C 0,0 UV-I 0,0 C 48 % 70 % 0 % 1024,5 hPa 0,0 l/m 0,2 km/h (0 Bft) 0 min 0,0 km/h (0 Bft)
30.07.2009 23:54 22,6 C 14,7 C 0,0 UV-I 0,0 C 48 % 70 % 0 % 1024,5 hPa 0,0 l/m 0,2 km/h (0 Bft) 0 min 0,0 km/h (0 Bft)
30.07.2009 23:56 22,6 C 14,7 C 0,0 UV-I 0,0 C 48 % 70 % 0 % 1024,6 hPa 0,0 l/m 0,2 km/h (0 Bft) 0 min 0,0 km/h (0 Bft)
30.07.2009 23:58 22,6 C 14,7 C 0,0 UV-I 0,0 C 48 % 70 % 0 % 1024,6 hPa 0,0 l/m 0,2 km/h (0 Bft) 0 min 0,0 km/h (0 Bft)
_ Min-Zeit 07:12 23:54 00:00 00:00 21:06 15:54 00:00 01:36 - 00:00 - 00:00
Minimum _ 22,2 C 14,7 C 0,0 UV-I 0,0 C 42 % 43 % 0 % 1011,1 hPa - 0,0 km/h (0 Bft) - 0,0 km/h (0 Bft)
_ Max-Zeit 17:32 15:32 10:42 10:46 03:34 03:04 10:06 22:56 01:08 10:32 10:00 11:54
Maximum _ 25,4 C 23,5 C 14,2 UV-I 4,4 C 64 % 86 % 100 % 1024,6 hPa 0,3 l/m 9,6 km/h
SW (2 Bft)
2 min 28,6 km/h
N-NO (4 Bft)
Durchschnitt _ 23,6 C 19,5 C 2,1 UV-I 0,9 C 53 % 64 % 24 % 1018,6 hPa #1,6 l/m 4,4 km/h (1 Bft) #2:24 h 8,1 km/h (2 Bft)
© 2012 W. Hausmann